Wetterdaten: Montag, 03.12.2018
Datum Zeit Temp. Aussen Temp. o. S. +5cm Feuchte Auss Luftdruck Regen Sonnenschein Regendauer Solar Windben Empfang
03.12.2018 00:00 12,8 C 11,7 C 11,1 C 97 % 998,6 hPa 0,0 l/m 0 min 2 min 0 W/m 9,7 km/h (2 Bft) 97,87 %
03.12.2018 00:02 12,8 C 11,7 C 11,1 C 97 % 998,7 hPa 0,0 l/m 0 min 2 min 0 W/m 3,2 km/h (1 Bft) 9,09 %
03.12.2018 00:04 12,9 C 11,7 C 11,1 C 97 % 998,8 hPa 0,2 l/m 0 min 2 min 0 W/m 12,9 km/h (3 Bft) 97,30 %
03.12.2018 00:07 12,9 C 11,7 C 11,7 C 97 % 998,8 hPa 0,0 l/m 0 min 3 min 0 W/m 16,1 km/h (3 Bft) 100,00 %
03.12.2018 00:08 12,9 C 11,7 C 11,1 C 97 % 998,8 hPa 0,0 l/m 0 min 1 min 0 W/m 12,9 km/h (3 Bft) 100,00 %
03.12.2018 00:10 12,9 C 11,7 C 11,1 C 97 % 998,8 hPa 0,0 l/m 0 min 2 min 0 W/m 12,9 km/h (3 Bft) 100,00 %
03.12.2018 00:12 12,9 C 11,7 C 11,7 C 97 % 998,8 hPa 0,0 l/m 0 min 2 min 0 W/m 16,1 km/h (3 Bft) 100,00 %
03.12.2018 00:14 12,9 C 11,7 C 11,7 C 97 % 998,8 hPa 0,0 l/m 0 min 2 min 0 W/m 19,3 km/h (3 Bft) 100,00 %
03.12.2018 00:16 12,9 C 11,7 C 11,7 C 97 % 998,7 hPa 0,0 l/m 0 min 2 min 0 W/m 12,9 km/h (3 Bft) 100,00 %
03.12.2018 00:18 12,9 C 11,7 C 11,7 C 97 % 998,7 hPa 0,0 l/m 0 min 2 min 0 W/m 19,3 km/h (3 Bft) 97,87 %
03.12.2018 00:20 12,9 C 11,7 C 11,7 C 97 % 998,8 hPa 0,0 l/m 0 min 2 min 0 W/m 16,1 km/h (3 Bft) 100,00 %
03.12.2018 00:22 12,9 C 11,7 C 11,7 C 97 % 998,8 hPa 0,0 l/m 0 min 2 min 0 W/m 12,9 km/h (3 Bft) 100,00 %
03.12.2018 00:24 12,9 C 11,7 C 11,1 C 97 % 998,7 hPa 0,0 l/m 0 min 2 min 0 W/m 16,1 km/h (3 Bft) 100,00 %
03.12.2018 00:26 12,9 C 11,7 C 11,1 C 98 % 998,6 hPa 0,0 l/m 0 min 2 min 0 W/m 22,5 km/h (4 Bft) 93,48 %
03.12.2018 00:28 12,9 C 11,7 C 11,1 C 98 % 998,6 hPa 0,2 l/m 0 min 2 min 0 W/m 19,3 km/h (3 Bft) 100,00 %
03.12.2018 00:30 12,9 C 11,7 C 11,1 C 98 % 998,4 hPa 0,2 l/m 0 min 2 min 0 W/m 16,1 km/h (3 Bft) 100,00 %
03.12.2018 00:32 12,9 C 11,7 C 11,1 C 98 % 998,5 hPa 0,0 l/m 0 min 2 min 0 W/m 12,9 km/h (3 Bft) 100,00 %
03.12.2018 00:34 12,9 C 11,7 C 11,1 C 98 % 998,4 hPa 0,0 l/m 0 min 2 min 0 W/m 12,9 km/h (3 Bft) 97,87 %
03.12.2018 00:36 12,9 C 11,7 C 11,1 C 98 % 998,3 hPa 0,2 l/m 0 min 2 min 0 W/m 16,1 km/h (3 Bft) 97,87 %
03.12.2018 00:38 12,9 C 11,7 C 11,1 C 98 % 998,6 hPa 0,0 l/m 0 min 2 min 0 W/m 16,1 km/h (3 Bft) 97,83 %
03.12.2018 00:40 12,9 C 11,7 C 11,1 C 98 % 998,7 hPa 0,0 l/m 0 min 2 min 0 W/m 6,4 km/h (2 Bft) 97,22 %
03.12.2018 00:42 12,9 C 11,7 C 11,1 C 98 % 998,6 hPa 0,0 l/m 0 min 2 min 0 W/m 9,7 km/h (2 Bft) 96,55 %
03.12.2018 00:44 12,9 C 11,7 C 11,1 C 98 % 998,5 hPa 0,2 l/m 0 min 2 min 0 W/m 9,7 km/h (2 Bft) 100,00 %
03.12.2018 00:46 12,8 C 11,7 C 11,1 C 98 % 998,6 hPa 0,2 l/m 0 min 2 min 0 W/m 12,9 km/h (3 Bft) 96,61 %
03.12.2018 00:48 12,8 C 11,7 C 11,1 C 98 % 998,6 hPa 0,2 l/m 0 min 2 min 0 W/m 6,4 km/h (2 Bft) 97,14 %
03.12.2018 00:50 12,8 C 11,7 C 11,1 C 98 % 998,4 hPa 0,4 l/m 0 min 2 min 0 W/m 3,2 km/h (1 Bft) 96,55 %
03.12.2018 00:52 12,8 C 11,7 C 11,1 C 98 % 998,4 hPa 0,2 l/m 0 min 2 min 0 W/m 6,4 km/h (2 Bft) 95,74 %
03.12.2018 00:54 12,8 C 11,7 C 11,1 C 98 % 998,3 hPa 0,2 l/m 0 min 2 min 0 W/m 16,1 km/h (3 Bft) 95,74 %
03.12.2018 00:56 12,8 C 11,7 C 11,1 C 98 % 998,3 hPa 0,2 l/m 0 min 2 min 0 W/m 12,9 km/h (3 Bft) 95,74 %
03.12.2018 00:58 12,8 C 11,7 C 11,1 C 98 % 998,3 hPa 0,0 l/m 0 min 2 min 0 W/m 19,3 km/h (3 Bft) 93,62 %
03.12.2018 01:00 12,8 C 11,7 C 11,1 C 98 % 998,3 hPa 0,0 l/m 0 min 0 min 0 W/m 19,3 km/h (3 Bft) 95,74 %
03.12.2018 01:02 12,8 C 11,7 C 11,1 C 98 % 998,3 hPa 0,0 l/m 0 min 0 min 0 W/m 16,1 km/h (3 Bft) 95,65 %
03.12.2018 01:04 12,8 C 11,7 C 11,1 C 98 % 998,2 hPa 0,0 l/m 0 min 0 min 0 W/m 16,1 km/h (3 Bft) 95,74 %
03.12.2018 01:06 12,8 C 11,7 C 11,1 C 98 % 998,3 hPa 0,0 l/m 0 min 0 min 0 W/m 16,1 km/h (3 Bft) 95,74 %
03.12.2018 01:08 12,7 C 11,7 C 11,1 C 98 % 998,2 hPa 0,0 l/m 0 min 2 min 0 W/m 19,3 km/h (3 Bft) 93,62 %
03.12.2018 01:10 12,7 C 11,7 C 11,1 C 98 % 998,3 hPa 0,0 l/m 0 min 0 min 0 W/m 29,0 km/h (5 Bft) 97,14 %
03.12.2018 01:12 12,7 C 11,7 C 11,1 C 98 % 998,3 hPa 0,0 l/m 0 min 0 min 0 W/m 22,5 km/h (4 Bft) 93,62 %
03.12.2018 01:14 12,7 C 11,7 C 11,1 C 98 % 998,3 hPa 0,0 l/m 0 min 2 min 0 W/m 22,5 km/h (4 Bft) 96,55 %
03.12.2018 01:16 12,7 C 11,7 C 11,1 C 98 % 998,3 hPa 0,0 l/m 0 min 2 min 0 W/m 12,9 km/h (3 Bft) 95,74 %
03.12.2018 01:18 12,7 C 11,7 C 11,1 C 98 % 998,3 hPa 0,0 l/m 0 min 2 min 0 W/m 9,7 km/h (2 Bft) 97,87 %
03.12.2018 01:20 12,7 C 11,7 C 11,1 C 98 % 998,3 hPa 0,0 l/m 0 min 2 min 0 W/m 9,7 km/h (2 Bft) 97,87 %
03.12.2018 01:22 12,7 C 11,7 C 11,1 C 98 % 998,3 hPa 0,2 l/m 0 min 2 min 0 W/m 12,9 km/h (3 Bft) 95,74 %
03.12.2018 01:24 12,7 C 11,7 C 11,1 C 98 % 998,3 hPa 0,0 l/m 0 min 2 min 0 W/m 9,7 km/h (2 Bft) 97,14 %
03.12.2018 01:26 12,7 C 11,7 C 11,1 C 98 % 998,5 hPa 0,0 l/m 0 min 2 min 0 W/m 6,4 km/h (2 Bft) 98,28 %
03.12.2018 01:28 12,7 C 11,7 C 11,1 C 98 % 998,4 hPa 0,0 l/m 0 min 2 min 0 W/m 9,7 km/h (2 Bft) 97,87 %
03.12.2018 01:30 12,7 C 11,7 C 11,1 C 98 % 998,6 hPa 0,0 l/m 0 min 2 min 0 W/m 9,7 km/h (2 Bft) 93,62 %
03.12.2018 01:32 12,7 C 11,7 C 11,1 C 98 % 998,6 hPa 0,0 l/m 0 min 2 min 0 W/m 9,7 km/h (2 Bft) 95,74 %
03.12.2018 01:34 12,7 C 11,7 C 11,1 C 98 % 998,5 hPa 0,0 l/m 0 min 0 min 0 W/m 12,9 km/h (3 Bft) 97,14 %
03.12.2018 01:36 12,7 C 11,7 C 11,1 C 98 % 998,5 hPa 0,0 l/m 0 min 0 min 0 W/m 6,4 km/h (2 Bft) 98,28 %
03.12.2018 01:38 12,7 C 11,7 C 11,1 C 98 % 998,5 hPa 0,0 l/m 0 min 0 min 0 W/m 16,1 km/h (3 Bft) 97,87 %
03.12.2018 01:40 12,7 C 11,7 C 11,1 C 98 % 998,5 hPa 0,2 l/m 0 min 0 min 0 W/m 12,9 km/h (3 Bft) 97,87 %
03.12.2018 01:42 12,7 C 11,7 C 11,1 C 98 % 998,5 hPa 0,0 l/m 0 min 0 min 0 W/m 19,3 km/h (3 Bft) 97,87 %
03.12.2018 01:44 12,7 C 11,7 C 11,1 C 98 % 998,5 hPa 0,0 l/m 0 min 0 min 0 W/m 12,9 km/h (3 Bft) 97,14 %
03.12.2018 01:46 12,7 C 11,7 C 11,1 C 98 % 998,6 hPa 0,0 l/m 0 min 0 min 0 W/m 9,7 km/h (2 Bft) 100,00 %
03.12.2018 01:48 12,7 C 11,7 C 11,1 C 98 % 998,5 hPa 0,0 l/m 0 min 0 min 0 W/m 12,9 km/h (3 Bft) 95,74 %
03.12.2018 01:50 12,7 C 11,7 C 11,1 C 98 % 998,5 hPa 0,0 l/m 0 min 0 min 0 W/m 22,5 km/h (4 Bft) 100,00 %
03.12.2018 01:52 12,7 C 11,7 C 11,1 C 98 % 998,5 hPa 0,0 l/m 0 min 0 min 0 W/m 12,9 km/h (3 Bft) 100,00 %
03.12.2018 01:54 12,7 C 11,7 C 11,1 C 98 % 998,5 hPa 0,0 l/m 0 min 0 min 0 W/m 16,1 km/h (3 Bft) 100,00 %
03.12.2018 01:56 12,7 C 11,7 C 11,1 C 98 % 998,5 hPa 0,0 l/m 0 min 0 min 0 W/m 12,9 km/h (3 Bft) 95,74 %
03.12.2018 01:58 12,7 C 11,7 C 11,1 C 98 % 998,5 hPa 0,0 l/m 0 min 0 min 0 W/m 9,7 km/h (2 Bft) 95,74 %
03.12.2018 02:00 12,7 C 11,7 C 11,1 C 98 % 998,5 hPa 0,0 l/m 0 min 0 min 0 W/m 12,9 km/h (3 Bft) 100,00 %
03.12.2018 02:02 12,7 C 11,7 C 11,1 C 98 % 998,4 hPa 0,0 l/m 0 min 0 min 0 W/m 9,7 km/h (2 Bft) 100,00 %
03.12.2018 02:04 12,7 C 11,7 C 11,1 C 98 % 998,5 hPa 0,0 l/m 0 min 0 min 0 W/m 9,7 km/h (2 Bft) 100,00 %
03.12.2018 02:06 12,7 C 11,7 C 11,1 C 98 % 998,5 hPa 0,0 l/m 0 min 0 min 0 W/m 6,4 km/h (2 Bft) 97,87 %
03.12.2018 02:08 12,7 C 11,7 C 11,1 C 98 % 998,4 hPa 0,0 l/m 0 min 0 min 0 W/m 12,9 km/h (3 Bft) 97,87 %
03.12.2018 02:10 12,7 C 11,7 C 11,1 C 98 % 998,4 hPa 0,0 l/m 0 min 0 min 0 W/m 9,7 km/h (2 Bft) 100,00 %
03.12.2018 02:12 12,7 C 11,7 C 11,1 C 98 % 998,3 hPa 0,0 l/m 0 min 0 min 0 W/m 12,9 km/h (3 Bft) 100,00 %
03.12.2018 02:14 12,6 C 11,7 C 11,1 C 98 % 998,4 hPa 0,0 l/m 0 min 0 min 0 W/m 9,7 km/h (2 Bft) 98,28 %
03.12.2018 02:16 12,6 C 11,7 C 11,1 C 98 % 998,5 hPa 0,0 l/m 0 min 0 min 0 W/m 6,4 km/h (2 Bft) 97,87 %
03.12.2018 02:18 12,6 C 11,7 C 11,1 C 98 % 998,6 hPa 0,0 l/m 0 min 0 min 0 W/m 6,4 km/h (2 Bft) 97,14 %
03.12.2018 02:20 12,6 C 11,7 C 11,1 C 98 % 998,6 hPa 0,0 l/m 0 min 0 min 0 W/m 9,7 km/h (2 Bft) 100,00 %
03.12.2018 02:22 12,6 C 11,7 C 11,1 C 98 % 998,7 hPa 0,0 l/m 0 min 0 min 0 W/m 19,3 km/h (3 Bft) 100,00 %
03.12.2018 02:24 12,6 C 11,7 C 11,1 C 98 % 998,7 hPa 0,0 l/m 0 min 0 min 0 W/m 9,7 km/h (2 Bft) 97,83 %
03.12.2018 02:26 12,6 C 11,7 C 11,1 C 98 % 998,7 hPa 0,0 l/m 0 min 0 min 0 W/m 19,3 km/h (3 Bft) 95,74 %
03.12.2018 02:28 12,6 C 11,7 C 11,1 C 98 % 998,7 hPa 0,0 l/m 0 min 0 min 0 W/m 12,9 km/h (3 Bft) 97,87 %
03.12.2018 02:30 12,6 C 11,7 C 11,1 C 98 % 998,7 hPa 0,0 l/m 0 min 0 min 0 W/m 12,9 km/h (3 Bft) 93,62 %
03.12.2018 02:32 12,6 C 11,7 C 11,1 C 98 % 998,7 hPa 0,0 l/m 0 min 0 min 0 W/m 19,3 km/h (3 Bft) 97,87 %
03.12.2018 02:34 12,6 C 11,7 C 11,1 C 98 % 998,7 hPa 0,0 l/m 0 min 0 min 0 W/m 12,9 km/h (3 Bft) 100,00 %
03.12.2018 02:36 12,6 C 11,7 C 11,1 C 98 % 998,6 hPa 0,0 l/m 0 min 0 min 0 W/m 16,1 km/h (3 Bft) 96,55 %
03.12.2018 02:38 12,6 C 11,7 C 11,1 C 98 % 998,6 hPa 0,0 l/m 0 min 0 min 0 W/m 9,7 km/h (2 Bft) 97,22 %
03.12.2018 02:40 12,6 C 11,7 C 11,1 C 98 % 998,6 hPa 0,0 l/m 0 min 0 min 0 W/m 16,1 km/h (3 Bft) 97,87 %
03.12.2018 02:42 12,6 C 11,7 C 11,1 C 98 % 998,6 hPa 0,0 l/m 0 min 0 min 0 W/m 9,7 km/h (2 Bft) 97,87 %
03.12.2018 02:44 12,6 C 11,7 C 11,1 C 98 % 998,7 hPa 0,0 l/m 0 min 0 min 0 W/m 22,5 km/h (4 Bft) 97,87 %
03.12.2018 02:46 12,6 C 11,7 C 11,1 C 98 % 998,6 hPa 0,0 l/m 0 min 0 min 0 W/m 16,1 km/h (3 Bft) 97,87 %
03.12.2018 02:48 12,6 C 11,7 C 11,1 C 98 % 998,5 hPa 0,0 l/m 0 min 0 min 0 W/m 12,9 km/h (3 Bft) 97,87 %
03.12.2018 02:50 12,6 C 11,7 C 11,1 C 98 % 998,4 hPa 0,0 l/m 0 min 0 min 0 W/m 16,1 km/h (3 Bft) 97,83 %
03.12.2018 02:52 12,6 C 11,7 C 11,1 C 98 % 998,5 hPa 0,0 l/m 0 min 0 min 0 W/m 9,7 km/h (2 Bft) 97,87 %
03.12.2018 02:54 12,6 C 11,7 C 11,1 C 98 % 998,5 hPa 0,0 l/m 0 min 0 min 0 W/m 22,5 km/h (4 Bft) 97,87 %
03.12.2018 02:56 12,6 C 11,7 C 11,1 C 98 % 998,5 hPa 0,0 l/m 0 min 0 min 0 W/m 19,3 km/h (3 Bft) 97,87 %
03.12.2018 02:58 12,6 C 11,7 C 11,1 C 98 % 998,5 hPa 0,0 l/m 0 min 0 min 0 W/m 19,3 km/h (3 Bft) 97,87 %
03.12.2018 03:00 12,6 C 11,7 C 11,1 C 98 % 998,5 hPa 0,0 l/m 0 min 0 min 0 W/m 16,1 km/h (3 Bft) 97,87 %
03.12.2018 03:02 12,6 C 11,7 C 11,1 C 98 % 998,5 hPa 0,0 l/m 0 min 0 min 0 W/m 16,1 km/h (3 Bft) 97,83 %
03.12.2018 03:04 12,6 C 11,7 C 11,1 C 98 % 998,5 hPa 0,0 l/m 0 min 0 min 0 W/m 12,9 km/h (3 Bft) 97,87 %
03.12.2018 03:06 12,7 C 11,7 C 11,1 C 98 % 998,4 hPa 0,0 l/m 0 min 0 min 0 W/m 12,9 km/h (3 Bft) 97,87 %
03.12.2018 03:08 12,6 C 11,7 C 11,1 C 98 % 998,5 hPa 0,0 l/m 0 min 0 min 0 W/m 25,7 km/h (4 Bft) 93,62 %
03.12.2018 03:10 12,7 C 11,7 C 11,1 C 98 % 998,4 hPa 0,0 l/m 0 min 0 min 0 W/m 29,0 km/h (5 Bft) 95,74 %
03.12.2018 03:12 12,7 C 11,7 C 11,1 C 98 % 998,4 hPa 0,0 l/m 0 min 0 min 0 W/m 9,7 km/h (2 Bft) 95,74 %
03.12.2018 03:14 12,7 C 11,7 C 11,1 C 98 % 998,4 hPa 0,0 l/m 0 min 0 min 0 W/m 12,9 km/h (3 Bft) 97,83 %
03.12.2018 03:16 12,7 C 11,7 C 11,1 C 98 % 998,4 hPa 0,0 l/m 0 min 0 min 0 W/m 9,7 km/h (2 Bft) 97,87 %
03.12.2018 03:18 12,7 C 11,7 C 11,1 C 98 % 998,5 hPa 0,0 l/m 0 min 0 min 0 W/m 19,3 km/h (3 Bft) 95,74 %
03.12.2018 03:20 12,7 C 11,7 C 11,1 C 98 % 998,5 hPa 0,0 l/m 0 min 0 min 0 W/m 9,7 km/h (2 Bft) 97,87 %
03.12.2018 03:22 12,7 C 11,7 C 11,1 C 98 % 998,5 hPa 0,0 l/m 0 min 0 min 0 W/m 9,7 km/h (2 Bft) 95,74 %
03.12.2018 03:24 12,7 C 11,7 C 11,1 C 98 % 998,5 hPa 0,0 l/m 0 min 0 min 0 W/m 16,1 km/h (3 Bft) 97,83 %
03.12.2018 03:26 12,7 C 11,7 C 11,1 C 98 % 998,5 hPa 0,0 l/m 0 min 0 min 0 W/m 16,1 km/h (3 Bft) 97,87 %
03.12.2018 03:28 12,7 C 11,7 C 11,1 C 98 % 998,4 hPa 0,0 l/m 0 min 0 min 0 W/m 16,1 km/h (3 Bft) 97,87 %
03.12.2018 03:30 12,7 C 11,7 C 11,1 C 98 % 998,3 hPa 0,0 l/m 0 min 0 min 0 W/m 12,9 km/h (3 Bft) 97,87 %
03.12.2018 03:32 12,7 C 12,2 C 11,1 C 98 % 998,4 hPa 0,0 l/m 0 min 0 min 0 W/m 9,7 km/h (2 Bft) 97,87 %
03.12.2018 03:34 12,7 C 12,2 C 11,1 C 98 % 998,4 hPa 0,0 l/m 0 min 0 min 0 W/m 16,1 km/h (3 Bft) 97,87 %
03.12.2018 03:36 12,7 C 12,2 C 11,1 C 98 % 998,3 hPa 0,0 l/m 0 min 0 min 0 W/m 9,7 km/h (2 Bft) 97,83 %
03.12.2018 03:38 12,7 C 12,2 C 11,1 C 98 % 998,4 hPa 0,0 l/m 0 min 2 min 0 W/m 22,5 km/h (4 Bft) 95,74 %
03.12.2018 03:40 12,7 C 11,7 C 11,1 C 98 % 998,3 hPa 0,0 l/m 0 min 0 min 0 W/m 19,3 km/h (3 Bft) 95,74 %
03.12.2018 03:42 12,7 C 11,7 C 11,1 C 98 % 998,3 hPa 0,0 l/m 0 min 0 min 0 W/m 16,1 km/h (3 Bft) 95,74 %
03.12.2018 03:44 12,7 C 11,7 C 11,1 C 98 % 998,1 hPa 0,0 l/m 0 min 0 min 0 W/m 19,3 km/h (3 Bft) 100,00 %
03.12.2018 03:46 12,7 C 11,7 C 11,1 C 98 % 998,2 hPa 0,0 l/m 0 min 2 min 0 W/m 12,9 km/h (3 Bft) 97,87 %
03.12.2018 03:48 12,7 C 11,7 C 11,1 C 98 % 998,2 hPa 0,0 l/m 0 min 2 min 0 W/m 9,7 km/h (2 Bft) 97,83 %
03.12.2018 03:50 12,7 C 11,7 C 11,1 C 98 % 998,2 hPa 0,0 l/m 0 min 2 min 0 W/m 19,3 km/h (3 Bft) 97,87 %
03.12.2018 03:52 12,6 C 11,7 C 11,1 C 98 % 998,3 hPa 0,0 l/m 0 min 2 min 0 W/m 12,9 km/h (3 Bft) 100,00 %
03.12.2018 03:54 12,6 C 11,7 C 11,1 C 98 % 998,2 hPa 0,0 l/m 0 min 0 min 0 W/m 12,9 km/h (3 Bft) 100,00 %
03.12.2018 03:56 12,6 C 11,7 C 11,1 C 98 % 998,2 hPa 0,0 l/m 0 min 0 min 0 W/m 6,4 km/h (2 Bft) 97,87 %
03.12.2018 03:58 12,6 C 11,7 C 11,1 C 98 % 998,1 hPa 0,0 l/m 0 min 0 min 0 W/m 12,9 km/h (3 Bft) 100,00 %
03.12.2018 04:00 12,6 C 11,7 C 11,1 C 98 % 998,0 hPa 0,0 l/m 0 min 0 min 0 W/m 9,7 km/h (2 Bft) 97,83 %
03.12.2018 04:02 12,6 C 11,7 C 11,1 C 98 % 998,0 hPa 0,0 l/m 0 min 0 min 0 W/m 9,7 km/h (2 Bft) 96,00 %
03.12.2018 04:04 12,6 C 11,7 C 11,1 C 98 % 997,9 hPa 0,0 l/m 0 min 0 min 0 W/m 16,1 km/h (3 Bft) 97,87 %
03.12.2018 04:06 12,6 C 11,7 C 11,1 C 98 % 997,9 hPa 0,0 l/m 0 min 0 min 0 W/m 16,1 km/h (3 Bft) 97,87 %
03.12.2018 04:08 12,6 C 11,7 C 11,1 C 98 % 997,8 hPa 0,0 l/m 0 min 0 min 0 W/m 9,7 km/h (2 Bft) 97,87 %
03.12.2018 04:10 12,6 C 11,7 C 11,1 C 98 % 997,8 hPa 0,0 l/m 0 min 2 min 0 W/m 25,7 km/h (4 Bft) 97,87 %
03.12.2018 04:12 12,6 C 11,7 C 11,1 C 98 % 997,7 hPa 0,0 l/m 0 min 2 min 0 W/m 16,1 km/h (3 Bft) 97,83 %
03.12.2018 04:14 12,6 C 11,7 C 11,1 C 98 % 997,7 hPa 0,0 l/m 0 min 2 min 0 W/m 6,4 km/h (2 Bft) 97,87 %
03.12.2018 04:16 12,6 C 11,7 C 11,1 C 98 % 997,6 hPa 0,0 l/m 0 min 2 min 0 W/m 12,9 km/h (3 Bft) 95,74 %
03.12.2018 04:18 12,6 C 11,7 C 11,1 C 98 % 997,7 hPa 0,2 l/m 0 min 2 min 0 W/m 9,7 km/h (2 Bft) 97,87 %
03.12.2018 04:20 12,6 C 11,7 C 11,1 C 98 % 997,7 hPa 0,0 l/m 0 min 2 min 0 W/m 12,9 km/h (3 Bft) 95,74 %
03.12.2018 04:22 12,6 C 11,7 C 11,1 C 98 % 997,7 hPa 0,0 l/m 0 min 2 min 0 W/m 16,1 km/h (3 Bft) 97,83 %
03.12.2018 04:24 12,6 C 11,7 C 11,1 C 98 % 997,8 hPa 0,0 l/m 0 min 0 min 0 W/m 19,3 km/h (3 Bft) 97,87 %
03.12.2018 04:26 12,6 C 11,7 C 11,1 C 98 % 997,8 hPa 0,0 l/m 0 min 0 min 0 W/m 16,1 km/h (3 Bft) 97,87 %
03.12.2018 04:28 12,5 C 11,7 C 11,1 C 98 % 997,8 hPa 0,0 l/m 0 min 0 min 0 W/m 9,7 km/h (2 Bft) 93,62 %
03.12.2018 04:30 12,5 C 11,7 C 11,1 C 98 % 997,8 hPa 0,0 l/m 0 min 0 min 0 W/m 6,4 km/h (2 Bft) 97,87 %
03.12.2018 04:32 12,5 C 11,7 C 11,1 C 98 % 997,9 hPa 0,0 l/m 0 min 0 min 0 W/m 6,4 km/h (2 Bft) 97,87 %
03.12.2018 04:34 12,5 C 11,7 C 11,1 C 98 % 997,9 hPa 0,0 l/m 0 min 0 min 0 W/m 16,1 km/h (3 Bft) 97,83 %
03.12.2018 04:36 12,5 C 11,7 C 11,1 C 98 % 998,0 hPa 0,0 l/m 0 min 0 min 0 W/m 22,5 km/h (4 Bft) 97,87 %
03.12.2018 04:38 12,5 C 11,7 C 11,1 C 98 % 997,9 hPa 0,0 l/m 0 min 0 min 0 W/m 22,5 km/h (4 Bft) 97,87 %
03.12.2018 04:40 12,5 C 11,7 C 11,1 C 98 % 997,9 hPa 0,0 l/m 0 min 0 min 0 W/m 19,3 km/h (3 Bft) 95,74 %
03.12.2018 04:42 12,6 C 11,7 C 11,1 C 98 % 998,0 hPa 0,0 l/m 0 min 0 min 0 W/m 19,3 km/h (3 Bft) 97,87 %
03.12.2018 04:44 12,5 C 11,7 C 11,1 C 98 % 998,0 hPa 0,0 l/m 0 min 0 min 0 W/m 16,1 km/h (3 Bft) 97,87 %
03.12.2018 04:46 12,5 C 11,7 C 11,1 C 98 % 997,9 hPa 0,0 l/m 0 min 0 min 0 W/m 12,9 km/h (3 Bft) 95,65 %
03.12.2018 04:48 12,5 C 11,7 C 11,1 C 98 % 998,2 hPa 0,0 l/m 0 min 0 min 0 W/m 16,1 km/h (3 Bft) 97,87 %
03.12.2018 04:50 12,6 C 11,7 C 11,1 C 98 % 998,2 hPa 0,0 l/m 0 min 0 min 0 W/m 16,1 km/h (3 Bft) 95,74 %
03.12.2018 04:52 12,6 C 11,7 C 11,1 C 98 % 998,1 hPa 0,0 l/m 0 min 0 min 0 W/m 9,7 km/h (2 Bft) 97,87 %
03.12.2018 04:54 12,6 C 11,7 C 11,1 C 98 % 998,1 hPa 0,0 l/m 0 min 0 min 0 W/m 12,9 km/h (3 Bft) 95,74 %
03.12.2018 04:56 12,6 C 11,7 C 11,1 C 98 % 998,2 hPa 0,0 l/m 0 min 0 min 0 W/m 19,3 km/h (3 Bft) 97,87 %
03.12.2018 04:58 12,6 C 11,7 C 11,1 C 98 % 998,2 hPa 0,0 l/m 0 min 0 min 0 W/m 12,9 km/h (3 Bft) 100,00 %
03.12.2018 05:00 12,6 C 11,7 C 11,1 C 98 % 998,2 hPa 0,0 l/m 0 min 0 min 0 W/m 12,9 km/h (3 Bft) 100,00 %
03.12.2018 05:02 12,6 C 11,7 C 11,1 C 98 % 998,3 hPa 0,0 l/m 0 min 0 min 0 W/m 16,1 km/h (3 Bft) 97,87 %
03.12.2018 05:04 12,5 C 11,7 C 11,1 C 98 % 998,3 hPa 0,0 l/m 0 min 0 min 0 W/m 12,9 km/h (3 Bft) 97,87 %
03.12.2018 05:05 12,6 C 11,7 C 11,1 C 98 % 998,3 hPa 0,0 l/m 0 min 0 min 0 W/m 19,3 km/h (3 Bft) 100,00 %
03.12.2018 05:12 12,5 C 11,7 C 11,1 C 98 % 998,3 hPa 0,0 l/m 0 min 0 min 0 W/m 9,7 km/h (2 Bft) 100,00 %
03.12.2018 05:14 12,5 C 11,7 C 11,1 C 97 % 998,3 hPa 0,0 l/m 0 min 0 min 0 W/m 16,1 km/h (3 Bft) 96,36 %
03.12.2018 05:16 12,5 C 11,7 C 11,1 C 97 % 998,4 hPa 0,0 l/m 0 min 0 min 0 W/m 22,5 km/h (4 Bft) 100,00 %
03.12.2018 05:18 12,5 C 11,7 C 11,1 C 97 % 998,3 hPa 0,0 l/m 0 min 0 min 0 W/m 12,9 km/h (3 Bft) 100,00 %
03.12.2018 05:20 12,5 C 11,7 C 11,1 C 97 % 998,4 hPa 0,0 l/m 0 min 0 min 0 W/m 9,7 km/h (2 Bft) 100,00 %
03.12.2018 05:22 12,5 C 12,2 C 11,1 C 97 % 998,4 hPa 0,0 l/m 0 min 0 min 0 W/m 16,1 km/h (3 Bft) 95,74 %
03.12.2018 05:24 12,5 C 12,2 C 11,1 C 97 % 998,5 hPa 0,0 l/m 0 min 0 min 0 W/m 16,1 km/h (3 Bft) 97,87 %
03.12.2018 05:26 12,5 C 12,2 C 11,1 C 97 % 998,5 hPa 0,0 l/m 0 min 0 min 0 W/m 16,1 km/h (3 Bft) 95,74 %
03.12.2018 05:28 12,5 C 12,2 C 11,1 C 97 % 998,5 hPa 0,0 l/m 0 min 0 min 0 W/m 12,9 km/h (3 Bft) 97,87 %
03.12.2018 05:30 12,6 C 12,2 C 11,1 C 97 % 998,5 hPa 0,0 l/m 0 min 0 min 0 W/m 16,1 km/h (3 Bft) 98,15 %
03.12.2018 05:32 12,6 C 12,2 C 11,1 C 97 % 998,4 hPa 0,0 l/m 0 min 0 min 0 W/m 12,9 km/h (3 Bft) 97,87 %
03.12.2018 05:34 12,6 C 12,2 C 11,1 C 97 % 998,3 hPa 0,0 l/m 0 min 0 min 0 W/m 9,7 km/h (2 Bft) 98,00 %
03.12.2018 05:36 12,6 C 12,2 C 11,1 C 97 % 998,4 hPa 0,0 l/m 0 min 0 min 0 W/m 12,9 km/h (3 Bft) 97,92 %
03.12.2018 05:38 12,6 C 12,2 C 11,1 C 97 % 998,4 hPa 0,0 l/m 0 min 0 min 0 W/m 29,0 km/h (5 Bft) 97,14 %
03.12.2018 05:40 12,6 C 12,2 C 11,1 C 97 % 998,4 hPa 0,0 l/m 0 min 0 min 0 W/m 16,1 km/h (3 Bft) 95,74 %
03.12.2018 05:42 12,6 C 12,2 C 11,1 C 97 % 998,5 hPa 0,0 l/m 0 min 0 min 0 W/m 19,3 km/h (3 Bft) 95,74 %
03.12.2018 05:44 12,6 C 12,2 C 11,1 C 97 % 998,6 hPa 0,0 l/m 0 min 0 min 0 W/m 19,3 km/h (3 Bft) 95,65 %
03.12.2018 05:46 12,6 C 12,2 C 11,1 C 97 % 998,5 hPa 0,0 l/m 0 min 0 min 0 W/m 25,7 km/h (4 Bft) 96,36 %
03.12.2018 05:48 12,6 C 12,2 C 11,1 C 97 % 998,6 hPa 0,0 l/m 0 min 0 min 0 W/m 9,7 km/h (2 Bft) 93,48 %
03.12.2018 05:50 12,6 C 12,2 C 11,1 C 97 % 998,6 hPa 0,0 l/m 0 min 0 min 0 W/m 16,1 km/h (3 Bft) 93,62 %
03.12.2018 05:52 12,6 C 12,2 C 11,1 C 97 % 998,7 hPa 0,0 l/m 0 min 0 min 0 W/m 9,7 km/h (2 Bft) 96,00 %
03.12.2018 05:54 12,6 C 12,2 C 11,1 C 97 % 998,7 hPa 0,0 l/m 0 min 0 min 0 W/m 22,5 km/h (4 Bft) 93,62 %
03.12.2018 05:56 12,6 C 12,2 C 11,1 C 97 % 998,7 hPa 0,0 l/m 0 min 0 min 0 W/m 16,1 km/h (3 Bft) 95,74 %
03.12.2018 05:58 12,6 C 12,2 C 11,1 C 97 % 998,8 hPa 0,0 l/m 0 min 0 min 0 W/m 16,1 km/h (3 Bft) 94,44 %
03.12.2018 06:00 12,6 C 12,2 C 11,1 C 96 % 998,8 hPa 0,0 l/m 0 min 0 min 0 W/m 9,7 km/h (2 Bft) 95,74 %
03.12.2018 06:02 12,6 C 12,2 C 11,1 C 96 % 998,8 hPa 0,0 l/m 0 min 0 min 0 W/m 25,7 km/h (4 Bft) 97,87 %
03.12.2018 06:04 12,6 C 12,2 C 11,1 C 96 % 998,7 hPa 0,0 l/m 0 min 0 min 0 W/m 22,5 km/h (4 Bft) 95,74 %
03.12.2018 06:08 12,6 C 12,2 C 11,1 C 96 % 998,7 hPa 0,0 l/m 0 min 4 min 0 W/m 29,0 km/h (5 Bft) 95,70 %
03.12.2018 06:10 12,6 C 12,2 C 11,1 C 96 % 998,8 hPa 0,0 l/m 0 min 2 min 0 W/m 12,9 km/h (3 Bft) 96,36 %
03.12.2018 06:12 12,6 C 12,2 C 11,1 C 96 % 998,7 hPa 0,0 l/m 0 min 2 min 0 W/m 16,1 km/h (3 Bft) 93,48 %
03.12.2018 06:14 12,6 C 11,7 C 11,1 C 96 % 998,8 hPa 0,0 l/m 0 min 2 min 0 W/m 16,1 km/h (3 Bft) 96,00 %
03.12.2018 06:16 12,6 C 11,1 C 10,6 C 96 % 998,6 hPa 0,2 l/m 0 min 2 min 0 W/m 25,7 km/h (4 Bft) 94,59 %
03.12.2018 06:18 12,6 C 11,1 C 10,6 C 96 % 998,6 hPa 0,0 l/m 0 min 2 min 0 W/m 12,9 km/h (3 Bft) 95,74 %
03.12.2018 06:20 12,6 C 11,1 C 10,6 C 96 % 998,8 hPa 0,0 l/m 0 min 2 min 0 W/m 22,5 km/h (4 Bft) 97,83 %
03.12.2018 06:22 12,6 C 11,1 C 10,6 C 96 % 998,6 hPa 0,2 l/m 0 min 2 min 0 W/m 22,5 km/h (4 Bft) 97,87 %
03.12.2018 06:24 12,6 C 11,1 C 10,6 C 96 % 998,8 hPa 0,0 l/m 0 min 2 min 0 W/m 12,9 km/h (3 Bft) 97,87 %
03.12.2018 06:26 12,6 C 11,1 C 10,6 C 96 % 998,7 hPa 0,0 l/m 0 min 2 min 0 W/m 3,2 km/h (1 Bft) 98,15 %
03.12.2018 06:28 12,6 C 11,1 C 10,6 C 96 % 998,6 hPa 0,2 l/m 0 min 2 min 0 W/m 12,9 km/h (3 Bft) 98,00 %
03.12.2018 06:30 12,6 C 11,1 C 10,6 C 96 % 998,5 hPa 0,0 l/m 0 min 2 min 0 W/m 19,3 km/h (3 Bft) 100,00 %
03.12.2018 06:32 12,6 C 11,1 C 10,6 C 96 % 998,6 hPa 0,0 l/m 0 min 2 min 0 W/m 12,9 km/h (3 Bft) 100,00 %
03.12.2018 06:34 12,5 C 11,1 C 10,6 C 96 % 998,6 hPa 0,0 l/m 0 min 2 min 0 W/m 9,7 km/h (2 Bft) 100,00 %
03.12.2018 06:36 12,5 C 11,1 C 10,6 C 96 % 998,5 hPa 0,0 l/m 0 min 0 min 0 W/m 16,1 km/h (3 Bft) 97,87 %
03.12.2018 06:38 12,5 C 11,1 C 10,6 C 96 % 998,5 hPa 0,0 l/m 0 min 0 min 0 W/m 9,7 km/h (2 Bft) 100,00 %
03.12.2018 06:40 12,5 C 11,1 C 10,6 C 96 % 998,5 hPa 0,0 l/m 0 min 0 min 0 W/m 6,4 km/h (2 Bft) 100,00 %
03.12.2018 06:42 12,4 C 11,1 C 10,6 C 96 % 998,5 hPa 0,0 l/m 0 min 0 min 0 W/m 9,7 km/h (2 Bft) 100,00 %
03.12.2018 06:44 12,4 C 11,1 C 10,6 C 96 % 998,6 hPa 0,2 l/m 0 min 2 min 0 W/m 9,7 km/h (2 Bft) 97,83 %
03.12.2018 06:46 12,4 C 11,1 C 10,6 C 96 % 998,5 hPa 0,0 l/m 0 min 2 min 0 W/m 19,3 km/h (3 Bft) 95,74 %
03.12.2018 06:48 12,4 C 11,1 C 10,6 C 96 % 998,6 hPa 0,0 l/m 0 min 2 min 0 W/m 25,7 km/h (4 Bft) 100,00 %
03.12.2018 06:50 12,4 C 11,1 C 10,6 C 96 % 998,7 hPa 0,0 l/m 0 min 2 min 0 W/m 16,1 km/h (3 Bft) 100,00 %
03.12.2018 06:52 12,4 C 11,1 C 10,6 C 96 % 998,7 hPa 0,0 l/m 0 min 2 min 0 W/m 9,7 km/h (2 Bft) 100,00 %
03.12.2018 06:54 12,4 C 11,1 C 10,6 C 96 % 998,7 hPa 0,0 l/m 0 min 2 min 0 W/m 6,4 km/h (2 Bft) 100,00 %
03.12.2018 06:56 12,4 C 11,1 C 10,6 C 96 % 998,8 hPa 0,0 l/m 0 min 0 min 0 W/m 12,9 km/h (3 Bft) 100,00 %
03.12.2018 06:58 12,3 C 11,1 C 10,6 C 96 % 998,8 hPa 0,0 l/m 0 min 2 min 0 W/m 9,7 km/h (2 Bft) 100,00 %
03.12.2018 07:00 12,3 C 11,1 C 10,6 C 96 % 998,7 hPa 0,0 l/m 0 min 2 min 0 W/m 16,1 km/h (3 Bft) 100,00 %
03.12.2018 07:02 12,3 C 11,1 C 10,6 C 96 % 998,7 hPa 0,2 l/m 0 min 2 min 0 W/m 6,4 km/h (2 Bft) 100,00 %
03.12.2018 07:04 12,3 C 11,1 C 10,6 C 96 % 998,7 hPa 0,2 l/m 0 min 2 min 0 W/m 3,2 km/h (1 Bft) 100,00 %
03.12.2018 07:06 12,3 C 11,1 C 10,6 C 96 % 998,8 hPa 0,0 l/m 0 min 2 min 0 W/m 16,1 km/h (3 Bft) 100,00 %
03.12.2018 07:08 12,3 C 11,1 C 10,6 C 96 % 998,8 hPa 0,0 l/m 0 min 2 min 0 W/m 12,9 km/h (3 Bft) 100,00 %
03.12.2018 07:10 12,2 C 11,1 C 10,6 C 96 % 998,7 hPa 0,0 l/m 0 min 0 min 0 W/m 3,2 km/h (1 Bft) 100,00 %
03.12.2018 07:12 12,2 C 11,1 C 10,6 C 96 % 998,7 hPa 0,0 l/m 0 min 0 min 0 W/m 9,7 km/h (2 Bft) 91,89 %
03.12.2018 07:14 12,2 C 11,1 C 10,6 C 96 % 998,7 hPa 0,0 l/m 0 min 2 min 0 W/m 9,7 km/h (2 Bft) 97,87 %
03.12.2018 07:16 12,2 C 11,1 C 10,6 C 96 % 998,7 hPa 0,0 l/m 0 min 2 min 0 W/m 9,7 km/h (2 Bft) 95,74 %
03.12.2018 07:18 12,2 C 11,1 C 10,6 C 96 % 998,8 hPa 0,0 l/m 0 min 0 min 0 W/m 12,9 km/h (3 Bft) 100,00 %
03.12.2018 07:20 12,2 C 11,1 C 10,6 C 96 % 998,8 hPa 0,0 l/m 0 min 0 min 0 W/m 9,7 km/h (2 Bft) 96,36 %
03.12.2018 07:22 12,1 C 11,1 C 10,6 C 96 % 998,7 hPa 0,2 l/m 0 min 0 min 0 W/m 19,3 km/h (3 Bft) 97,83 %
03.12.2018 07:24 12,1 C 11,1 C 10,6 C 96 % 998,7 hPa 0,0 l/m 0 min 0 min 0 W/m 19,3 km/h (3 Bft) 98,00 %
03.12.2018 07:26 12,1 C 11,1 C 10,0 C 96 % 998,7 hPa 0,0 l/m 0 min 0 min 0 W/m 19,3 km/h (3 Bft) 97,30 %
03.12.2018 07:28 12,1 C 11,1 C 10,0 C 96 % 998,7 hPa 0,0 l/m 0 min 0 min 0 W/m 16,1 km/h (3 Bft) 97,87 %
03.12.2018 07:30 12,1 C 11,1 C 10,0 C 96 % 998,7 hPa 0,0 l/m 0 min 0 min 0 W/m 19,3 km/h (3 Bft) 98,15 %
03.12.2018 07:32 12,1 C 11,1 C 10,0 C 96 % 998,7 hPa 0,0 l/m 0 min 0 min 0 W/m 19,3 km/h (3 Bft) 97,87 %
03.12.2018 07:34 12,1 C 11,1 C 10,0 C 96 % 998,8 hPa 0,0 l/m 0 min 0 min 0 W/m 12,9 km/h (3 Bft) 97,96 %
03.12.2018 07:36 12,1 C 11,1 C 10,0 C 96 % 999,0 hPa 0,0 l/m 0 min 0 min 0 W/m 9,7 km/h (2 Bft) 95,74 %
03.12.2018 07:38 12,1 C 11,1 C 10,0 C 96 % 999,0 hPa 0,0 l/m 0 min 0 min 0 W/m 9,7 km/h (2 Bft) 97,92 %
03.12.2018 07:40 12,0 C 11,1 C 10,0 C 96 % 998,9 hPa 0,0 l/m 0 min 2 min 0 W/m 16,1 km/h (3 Bft) 97,14 %
03.12.2018 07:42 12,0 C 10,6 C 10,0 C 96 % 998,9 hPa 0,0 l/m 0 min 2 min 0 W/m 9,7 km/h (2 Bft) 97,87 %
03.12.2018 07:44 12,0 C 10,6 C 10,0 C 96 % 999,0 hPa 0,2 l/m 0 min 2 min 0 W/m 6,4 km/h (2 Bft) 97,87 %
03.12.2018 07:46 12,0 C 10,6 C 10,0 C 96 % 999,0 hPa 0,0 l/m 0 min 2 min 0 W/m 9,7 km/h (2 Bft) 97,87 %
03.12.2018 07:48 12,0 C 10,6 C 10,0 C 96 % 998,9 hPa 0,0 l/m 0 min 2 min 0 W/m 16,1 km/h (3 Bft) 97,87 %
03.12.2018 07:50 12,0 C 10,6 C 10,0 C 96 % 998,9 hPa 0,0 l/m 0 min 2 min 0 W/m 16,1 km/h (3 Bft) 97,87 %
03.12.2018 07:52 11,9 C 10,6 C 10,0 C 96 % 998,9 hPa 0,0 l/m 0 min 0 min 0 W/m 16,1 km/h (3 Bft) 97,87 %
03.12.2018 07:54 11,9 C 10,6 C 10,0 C 96 % 999,1 hPa 0,0 l/m 0 min 0 min 0 W/m 16,1 km/h (3 Bft) 93,48 %
03.12.2018 07:56 11,9 C 10,6 C 10,0 C 96 % 999,1 hPa 0,0 l/m 0 min 0 min 0 W/m 12,9 km/h (3 Bft) 97,87 %
03.12.2018 07:58 11,8 C 10,6 C 10,0 C 96 % 999,0 hPa 0,0 l/m 0 min 0 min 0 W/m 19,3 km/h (3 Bft) 97,87 %
03.12.2018 08:00 11,8 C 10,6 C 10,0 C 96 % 999,0 hPa 0,0 l/m 0 min 0 min 0 W/m 9,7 km/h (2 Bft) 97,87 %
03.12.2018 08:02 11,8 C 10,6 C 10,0 C 96 % 999,0 hPa 0,0 l/m 0 min 0 min 0 W/m 9,7 km/h (2 Bft) 96,36 %
03.12.2018 08:04 11,7 C 10,6 C 10,0 C 96 % 999,0 hPa 0,0 l/m 0 min 0 min 0 W/m 9,7 km/h (2 Bft) 100,00 %
03.12.2018 08:06 11,7 C 10,0 C 10,0 C 96 % 999,1 hPa 0,0 l/m 0 min 0 min 0 W/m 9,7 km/h (2 Bft) 94,92 %
03.12.2018 08:08 11,7 C 10,6 C 9,4 C 96 % 999,1 hPa 0,0 l/m 0 min 0 min 0 W/m 9,7 km/h (2 Bft) 95,65 %
03.12.2018 08:10 11,6 C 10,0 C 9,4 C 96 % 999,1 hPa 0,0 l/m 0 min 0 min 0 W/m 19,3 km/h (3 Bft) 97,14 %
03.12.2018 08:12 11,6 C 10,0 C 9,4 C 96 % 999,1 hPa 0,0 l/m 0 min 0 min 0 W/m 9,7 km/h (2 Bft) 97,92 %
03.12.2018 08:14 11,6 C 10,0 C 9,4 C 95 % 999,2 hPa 0,0 l/m 0 min 0 min 0 W/m 9,7 km/h (2 Bft) 96,23 %
03.12.2018 08:16 11,6 C 10,0 C 9,4 C 95 % 999,2 hPa 0,0 l/m 0 min 0 min 0 W/m 12,9 km/h (3 Bft) 96,00 %
03.12.2018 08:18 11,6 C 10,0 C 9,4 C 95 % 999,2 hPa 0,0 l/m 0 min 0 min 0 W/m 9,7 km/h (2 Bft) 95,74 %
03.12.2018 08:20 11,5 C 10,0 C 9,4 C 95 % 999,2 hPa 0,0 l/m 0 min 0 min 0 W/m 16,1 km/h (3 Bft) 97,30 %
03.12.2018 08:22 11,5 C 10,0 C 9,4 C 95 % 999,2 hPa 0,0 l/m 0 min 0 min 0 W/m 6,4 km/h (2 Bft) 97,87 %
03.12.2018 08:24 11,5 C 10,6 C 9,4 C 95 % 999,2 hPa 0,0 l/m 0 min 0 min 1 W/m 9,7 km/h (2 Bft) 98,11 %
03.12.2018 08:26 11,5 C 10,0 C 9,4 C 95 % 999,2 hPa 0,0 l/m 0 min 0 min 5 W/m 16,1 km/h (3 Bft) 96,00 %
03.12.2018 08:28 11,5 C 10,6 C 9,4 C 95 % 999,2 hPa 0,0 l/m 0 min 0 min 5 W/m 12,9 km/h (3 Bft) 93,62 %
03.12.2018 08:30 11,5 C 10,0 C 9,4 C 95 % 999,3 hPa 0,0 l/m 0 min 0 min 5 W/m 9,7 km/h (2 Bft) 93,48 %
03.12.2018 08:32 11,4 C 10,0 C 9,4 C 95 % 999,3 hPa 0,0 l/m 0 min 0 min 6 W/m 12,9 km/h (3 Bft) 95,74 %
03.12.2018 08:34 11,4 C 10,0 C 9,4 C 95 % 999,3 hPa 0,0 l/m 0 min 0 min 7 W/m 16,1 km/h (3 Bft) 92,11 %
03.12.2018 08:36 11,4 C 10,0 C 9,4 C 95 % 999,3 hPa 0,0 l/m 0 min 0 min 6 W/m 9,7 km/h (2 Bft) 93,62 %
03.12.2018 08:38 11,4 C 10,0 C 9,4 C 95 % 999,3 hPa 0,0 l/m 0 min 0 min 7 W/m 9,7 km/h (2 Bft) 95,74 %
03.12.2018 08:40 11,4 C 10,0 C 9,4 C 95 % 999,2 hPa 0,0 l/m 0 min 0 min 7 W/m 9,7 km/h (2 Bft) 95,65 %
03.12.2018 08:42 11,4 C 10,0 C 9,4 C 95 % 999,3 hPa 0,0 l/m 0 min 0 min 7 W/m 9,7 km/h (2 Bft) 94,44 %
03.12.2018 08:44 11,4 C 10,0 C 9,4 C 95 % 999,3 hPa 0,0 l/m 0 min 0 min 7 W/m 3,2 km/h (1 Bft) 95,65 %
03.12.2018 08:46 11,4 C 10,0 C 9,4 C 95 % 999,4 hPa 0,0 l/m 0 min 0 min 9 W/m 12,9 km/h (3 Bft) 95,74 %
03.12.2018 08:48 11,3 C 10,0 C 9,4 C 95 % 999,3 hPa 0,0 l/m 0 min 0 min 10 W/m 16,1 km/h (3 Bft) 94,00 %
03.12.2018 08:50 11,3 C 10,0 C 9,4 C 95 % 999,3 hPa 0,0 l/m 0 min 0 min 10 W/m 9,7 km/h (2 Bft) 97,37 %
03.12.2018 08:52 11,3 C 10,0 C 9,4 C 95 % 999,3 hPa 0,0 l/m 0 min 0 min 10 W/m 9,7 km/h (2 Bft) 93,48 %
03.12.2018 08:54 11,3 C 10,0 C 9,4 C 95 % 999,3 hPa 0,0 l/m 0 min 0 min 13 W/m 3,2 km/h (1 Bft) 95,74 %
03.12.2018 08:56 11,3 C 10,0 C 9,4 C 95 % 999,4 hPa 0,0 l/m 0 min 0 min 16 W/m 9,7 km/h (2 Bft) 96,23 %
03.12.2018 08:58 11,3 C 10,6 C 9,4 C 95 % 999,4 hPa 0,0 l/m 0 min 0 min 14 W/m 9,7 km/h (2 Bft) 96,00 %
03.12.2018 09:00 11,3 C 10,6 C 9,4 C 96 % 999,3 hPa 0,0 l/m 0 min 0 min 12 W/m 16,1 km/h (3 Bft) 94,74 %
03.12.2018 09:02 11,4 C 10,6 C 10,0 C 96 % 999,4 hPa 0,0 l/m 0 min 0 min 15 W/m 12,9 km/h (3 Bft) 93,62 %
03.12.2018 09:04 11,4 C 10,6 C 10,0 C 96 % 999,4 hPa 0,0 l/m 0 min 0 min 17 W/m 9,7 km/h (2 Bft) 95,65 %
03.12.2018 09:06 11,4 C 10,6 C 10,0 C 96 % 999,3 hPa 0,0 l/m 0 min 0 min 20 W/m 12,9 km/h (3 Bft) 97,87 %
03.12.2018 09:08 11,4 C 10,6 C 10,0 C 96 % 999,3 hPa 0,0 l/m 0 min 0 min 19 W/m 6,4 km/h (2 Bft) 97,87 %
03.12.2018 09:10 11,4 C 10,6 C 10,0 C 96 % 999,3 hPa 0,0 l/m 0 min 0 min 19 W/m 9,7 km/h (2 Bft) 95,74 %
03.12.2018 09:12 11,4 C 10,6 C 10,0 C 96 % 999,3 hPa 0,0 l/m 0 min 0 min 22 W/m 6,4 km/h (2 Bft) 97,87 %
03.12.2018 09:14 11,4 C 10,6 C 10,0 C 96 % 999,3 hPa 0,0 l/m 0 min 0 min 29 W/m 9,7 km/h (2 Bft) 100,00 %
03.12.2018 09:16 11,4 C 10,6 C 10,0 C 96 % 999,3 hPa 0,0 l/m 0 min 0 min 30 W/m 9,7 km/h (2 Bft) 100,00 %
03.12.2018 09:18 11,4 C 10,6 C 10,0 C 96 % 999,4 hPa 0,0 l/m 0 min 0 min 23 W/m 9,7 km/h (2 Bft) 97,83 %
03.12.2018 09:20 11,4 C 10,6 C 10,0 C 96 % 999,5 hPa 0,0 l/m 0 min 0 min 21 W/m 12,9 km/h (3 Bft) 97,37 %
03.12.2018 09:22 11,4 C 10,6 C 10,0 C 96 % 999,4 hPa 0,0 l/m 0 min 0 min 23 W/m 9,7 km/h (2 Bft) 97,87 %
03.12.2018 09:24 11,5 C 10,6 C 10,0 C 96 % 999,5 hPa 0,0 l/m 0 min 0 min 23 W/m 16,1 km/h (3 Bft) 97,87 %
03.12.2018 09:26 11,5 C 10,6 C 10,0 C 96 % 999,4 hPa 0,0 l/m 0 min 0 min 26 W/m 16,1 km/h (3 Bft) 97,87 %
03.12.2018 09:28 11,6 C 10,6 C 10,0 C 96 % 999,4 hPa 0,0 l/m 0 min 0 min 32 W/m 29,0 km/h (5 Bft) 100,00 %
03.12.2018 09:30 11,6 C 10,6 C 10,0 C 96 % 999,4 hPa 0,0 l/m 0 min 0 min 34 W/m 16,1 km/h (3 Bft) 100,00 %
03.12.2018 09:32 11,6 C 10,6 C 10,0 C 96 % 999,5 hPa 0,0 l/m 0 min 0 min 32 W/m 9,7 km/h (2 Bft) 100,00 %
03.12.2018 09:34 11,6 C 11,1 C 10,0 C 96 % 999,3 hPa 0,0 l/m 2 min 0 min 76 W/m 19,3 km/h (3 Bft) 100,00 %
03.12.2018 09:36 11,7 C 11,1 C 10,0 C 96 % 999,3 hPa 0,0 l/m 2 min 2 min 120 W/m 9,7 km/h (2 Bft) 100,00 %
03.12.2018 09:38 11,7 C 11,1 C 10,6 C 96 % 999,3 hPa 0,0 l/m 2 min 0 min 119 W/m 16,1 km/h (3 Bft) 100,00 %
03.12.2018 09:40 11,7 C 11,1 C 10,6 C 96 % 999,3 hPa 0,0 l/m 2 min 0 min 114 W/m 19,3 km/h (3 Bft) 100,00 %
03.12.2018 09:42 11,8 C 11,1 C 10,6 C 96 % 999,4 hPa 0,0 l/m 2 min 0 min 89 W/m 9,7 km/h (2 Bft) 100,00 %
03.12.2018 09:44 11,8 C 11,7 C 10,6 C 96 % 999,4 hPa 0,0 l/m 2 min 0 min 108 W/m 16,1 km/h (3 Bft) 100,00 %
03.12.2018 09:46 11,9 C 11,7 C 10,6 C 96 % 999,4 hPa 0,0 l/m 2 min 0 min 99 W/m 6,4 km/h (2 Bft) 98,00 %
03.12.2018 09:48 11,9 C 11,7 C 10,6 C 96 % 999,4 hPa 0,0 l/m 2 min 0 min 116 W/m 12,9 km/h (3 Bft) 100,00 %
03.12.2018 09:50 11,9 C 12,2 C 10,6 C 96 % 999,5 hPa 0,0 l/m 2 min 0 min 123 W/m 19,3 km/h (3 Bft) 100,00 %
03.12.2018 09:52 12,0 C 11,7 C 10,6 C 96 % 999,4 hPa 0,0 l/m 2 min 0 min 108 W/m 6,4 km/h (2 Bft) 100,00 %
03.12.2018 09:54 12,0 C 11,7 C 11,1 C 96 % 999,5 hPa 0,0 l/m 2 min 0 min 114 W/m 22,5 km/h (4 Bft) 100,00 %
03.12.2018 09:56 12,1 C 11,7 C 11,1 C 96 % 999,5 hPa 0,0 l/m 2 min 0 min 110 W/m 16,1 km/h (3 Bft) 100,00 %
03.12.2018 09:58 12,1 C 11,7 C 11,1 C 96 % 999,5 hPa 0,0 l/m 0 min 0 min 78 W/m 22,5 km/h (4 Bft) 100,00 %
03.12.2018 10:00 12,1 C 11,7 C 11,1 C 96 % 999,5 hPa 0,0 l/m 2 min 0 min 106 W/m 12,9 km/h (3 Bft) 100,00 %
03.12.2018 10:02 12,2 C 11,7 C 11,1 C 96 % 999,4 hPa 0,0 l/m 2 min 0 min 108 W/m 9,7 km/h (2 Bft) 100,00 %
03.12.2018 10:04 12,2 C 11,7 C 11,1 C 96 % 999,5 hPa 0,0 l/m 2 min 0 min 106 W/m 9,7 km/h (2 Bft) 100,00 %
03.12.2018 10:06 12,2 C 11,7 C 11,1 C 96 % 999,5 hPa 0,0 l/m 2 min 0 min 116 W/m 9,7 km/h (2 Bft) 100,00 %
03.12.2018 10:08 12,2 C 12,2 C 11,1 C 96 % 999,4 hPa 0,0 l/m 2 min 0 min 172 W/m 12,9 km/h (3 Bft) 97,30 %
03.12.2018 10:10 12,3 C 12,2 C 11,1 C 96 % 999,5 hPa 0,0 l/m 0 min 0 min 104 W/m 12,9 km/h (3 Bft) 100,00 %
03.12.2018 10:12 12,3 C 12,2 C 11,1 C 96 % 999,5 hPa 0,0 l/m 0 min 0 min 97 W/m 12,9 km/h (3 Bft) 100,00 %
03.12.2018 10:14 12,3 C 11,7 C 11,1 C 96 % 999,6 hPa 0,0 l/m 0 min 0 min 85 W/m 22,5 km/h (4 Bft) 100,00 %
03.12.2018 10:16 12,3 C 11,7 C 11,1 C 96 % 999,6 hPa 0,0 l/m 0 min 0 min 80 W/m 19,3 km/h (3 Bft) 97,83 %
03.12.2018 10:18 12,4 C 11,7 C 11,1 C 96 % 999,5 hPa 0,0 l/m 0 min 0 min 83 W/m 9,7 km/h (2 Bft) 100,00 %
03.12.2018 10:20 12,4 C 11,7 C 11,1 C 96 % 999,6 hPa 0,0 l/m 0 min 0 min 80 W/m 9,7 km/h (2 Bft) 98,00 %
03.12.2018 10:22 12,4 C 11,7 C 11,1 C 95 % 999,5 hPa 0,0 l/m 0 min 0 min 73 W/m 6,4 km/h (2 Bft) 100,00 %
03.12.2018 10:24 12,4 C 11,7 C 11,1 C 95 % 999,6 hPa 0,0 l/m 0 min 0 min 89 W/m 12,9 km/h (3 Bft) 100,00 %
03.12.2018 10:26 12,4 C 11,7 C 11,1 C 95 % 999,6 hPa 0,0 l/m 0 min 0 min 80 W/m 9,7 km/h (2 Bft) 100,00 %
03.12.2018 10:28 12,4 C 11,7 C 11,1 C 95 % 999,6 hPa 0,0 l/m 0 min 0 min 80 W/m 19,3 km/h (3 Bft) 100,00 %
03.12.2018 10:30 12,4 C 11,7 C 11,1 C 95 % 999,6 hPa 0,0 l/m 0 min 0 min 79 W/m 19,3 km/h (3 Bft) 100,00 %
03.12.2018 10:32 12,4 C 11,7 C 11,1 C 95 % 999,6 hPa 0,0 l/m 0 min 0 min 76 W/m 19,3 km/h (3 Bft) 98,00 %
03.12.2018 10:34 12,5 C 11,7 C 11,1 C 95 % 999,7 hPa 0,0 l/m 0 min 0 min 65 W/m 12,9 km/h (3 Bft) 100,00 %
03.12.2018 10:36 12,5 C 11,7 C 11,1 C 94 % 999,8 hPa 0,0 l/m 0 min 0 min 50 W/m 16,1 km/h (3 Bft) 95,74 %
03.12.2018 10:38 12,5 C 11,7 C 11,1 C 94 % 999,8 hPa 0,0 l/m 0 min 0 min 37 W/m 9,7 km/h (2 Bft) 97,87 %
03.12.2018 10:40 12,5 C 11,7 C 11,1 C 94 % 999,8 hPa 0,0 l/m 0 min 0 min 38 W/m 25,7 km/h (4 Bft) 100,00 %
03.12.2018 10:42 12,5 C 11,7 C 11,1 C 94 % 999,8 hPa 0,0 l/m 0 min 0 min 44 W/m 12,9 km/h (3 Bft) 95,74 %
03.12.2018 10:44 12,5 C 12,2 C 11,1 C 94 % 999,7 hPa 0,0 l/m 0 min 0 min 51 W/m 9,7 km/h (2 Bft) 97,87 %
03.12.2018 10:46 12,5 C 12,2 C 11,1 C 94 % 999,7 hPa 0,0 l/m 0 min 0 min 52 W/m 9,7 km/h (2 Bft) 97,87 %
03.12.2018 10:48 12,5 C 12,2 C 11,1 C 94 % 999,8 hPa 0,0 l/m 0 min 0 min 66 W/m 12,9 km/h (3 Bft) 95,65 %
03.12.2018 10:50 12,6 C 12,8 C 11,1 C 94 % 999,7 hPa 0,0 l/m 0 min 0 min 82 W/m 12,9 km/h (3 Bft) 96,36 %
03.12.2018 10:52 12,6 C 12,8 C 11,1 C 93 % 999,7 hPa 0,0 l/m 0 min 0 min 52 W/m 16,1 km/h (3 Bft) 95,65 %
03.12.2018 10:54 12,6 C 12,2 C 11,1 C 93 % 999,7 hPa 0,0 l/m 0 min 0 min 52 W/m 22,5 km/h (4 Bft) 95,74 %
03.12.2018 10:56 12,6 C 12,8 C 11,1 C 93 % 999,7 hPa 0,0 l/m 0 min 0 min 84 W/m 9,7 km/h (2 Bft) 96,00 %
03.12.2018 10:58 12,6 C 12,8 C 11,1 C 93 % 999,6 hPa 0,0 l/m 0 min 0 min 118 W/m 22,5 km/h (4 Bft) 95,74 %
03.12.2018 11:00 12,6 C 12,8 C 11,1 C 93 % 999,7 hPa 0,0 l/m 0 min 0 min 99 W/m 12,9 km/h (3 Bft) 94,44 %
03.12.2018 11:02 12,6 C 13,3 C 11,1 C 93 % 999,7 hPa 0,0 l/m 0 min 0 min 101 W/m 16,1 km/h (3 Bft) 95,74 %
03.12.2018 11:04 12,7 C 15,0 C 11,7 C 93 % 999,7 hPa 0,0 l/m 2 min 0 min 259 W/m 19,3 km/h (3 Bft) 94,44 %
03.12.2018 11:06 12,8 C 15,6 C 11,7 C 93 % 999,7 hPa 0,0 l/m 2 min 0 min 259 W/m 12,9 km/h (3 Bft) 94,00 %
03.12.2018 11:08 12,8 C 16,1 C 11,7 C 93 % 999,7 hPa 0,0 l/m 2 min 0 min 188 W/m 9,7 km/h (2 Bft) 95,83 %
03.12.2018 11:10 12,9 C 15,0 C 11,7 C 93 % 999,6 hPa 0,0 l/m 2 min 2 min 158 W/m 12,9 km/h (3 Bft) 94,29 %
03.12.2018 11:12 12,9 C 13,9 C 11,7 C 93 % 999,6 hPa 0,0 l/m 0 min 2 min 85 W/m 16,1 km/h (3 Bft) 91,49 %
03.12.2018 11:14 12,9 C 12,8 C 11,7 C 93 % 999,6 hPa 0,0 l/m 0 min 2 min 37 W/m 16,1 km/h (3 Bft) 93,62 %
03.12.2018 11:16 12,9 C 12,8 C 11,7 C 92 % 999,6 hPa 0,0 l/m 0 min 2 min 31 W/m 19,3 km/h (3 Bft) 96,30 %
03.12.2018 11:18 12,9 C 12,8 C 11,7 C 92 % 999,7 hPa 0,0 l/m 0 min 2 min 38 W/m 9,7 km/h (2 Bft) 96,00 %
03.12.2018 11:20 12,9 C 12,8 C 11,7 C 92 % 999,6 hPa 0,0 l/m 0 min 0 min 47 W/m 6,4 km/h (2 Bft) 91,49 %
03.12.2018 11:22 12,9 C 12,8 C 11,7 C 92 % 999,6 hPa 0,0 l/m 0 min 0 min 72 W/m 9,7 km/h (2 Bft) 94,59 %
03.12.2018 11:24 12,9 C 12,8 C 11,7 C 92 % 999,6 hPa 0,0 l/m 0 min 0 min 111 W/m 19,3 km/h (3 Bft) 93,48 %
03.12.2018 11:26 12,9 C 13,3 C 11,7 C 92 % 999,6 hPa 0,0 l/m 0 min 0 min 138 W/m 19,3 km/h (3 Bft) 97,87 %
03.12.2018 11:28 12,9 C 13,9 C 11,7 C 92 % 999,6 hPa 0,0 l/m 2 min 0 min 168 W/m 19,3 km/h (3 Bft) 96,30 %
03.12.2018 11:30 12,9 C 13,3 C 12,2 C 92 % 999,5 hPa 0,0 l/m 0 min 0 min 105 W/m 12,9 km/h (3 Bft) 94,00 %
03.12.2018 11:32 13,0 C 13,3 C 12,2 C 92 % 999,5 hPa 0,0 l/m 0 min 0 min 104 W/m 12,9 km/h (3 Bft) 91,89 %
03.12.2018 11:34 13,0 C 13,3 C 12,2 C 92 % 999,5 hPa 0,0 l/m 0 min 0 min 92 W/m 12,9 km/h (3 Bft) 97,87 %
03.12.2018 11:36 13,0 C 13,9 C 12,2 C 91 % 999,4 hPa 0,0 l/m 0 min 0 min 108 W/m 9,7 km/h (2 Bft) 98,15 %
03.12.2018 11:38 13,0 C 13,3 C 12,2 C 91 % 999,4 hPa 0,0 l/m 0 min 0 min 94 W/m 9,7 km/h (2 Bft) 97,83 %
03.12.2018 11:40 13,0 C 12,8 C 11,7 C 91 % 999,4 hPa 0,0 l/m 0 min 0 min 61 W/m 19,3 km/h (3 Bft) 95,74 %
03.12.2018 11:42 13,0 C 12,8 C 11,7 C 91 % 999,4 hPa 0,0 l/m 0 min 0 min 45 W/m 12,9 km/h (3 Bft) 97,87 %
03.12.2018 11:44 13,0 C 12,8 C 11,7 C 91 % 999,3 hPa 0,0 l/m 0 min 0 min 36 W/m 12,9 km/h (3 Bft) 97,87 %
03.12.2018 11:46 13,0 C 12,8 C 11,7 C 91 % 999,3 hPa 0,0 l/m 0 min 0 min 40 W/m 12,9 km/h (3 Bft) 97,87 %
03.12.2018 11:48 13,0 C 13,3 C 11,7 C 91 % 999,3 hPa 0,0 l/m 0 min 0 min 92 W/m 6,4 km/h (2 Bft) 98,00 %
03.12.2018 11:50 13,0 C 13,3 C 11,7 C 91 % 999,2 hPa 0,0 l/m 0 min 0 min 98 W/m 12,9 km/h (3 Bft) 95,65 %
03.12.2018 11:52 13,0 C 12,8 C 12,2 C 91 % 999,1 hPa 0,0 l/m 0 min 0 min 72 W/m 19,3 km/h (3 Bft) 95,74 %
03.12.2018 11:54 13,0 C 12,2 C 11,7 C 91 % 999,2 hPa 0,0 l/m 0 min 2 min 45 W/m 19,3 km/h (3 Bft) 100,00 %
03.12.2018 11:56 13,0 C 12,2 C 11,7 C 91 % 999,2 hPa 0,0 l/m 0 min 2 min 51 W/m 16,1 km/h (3 Bft) 97,87 %
03.12.2018 11:58 13,0 C 12,8 C 11,7 C 91 % 999,2 hPa 0,0 l/m 0 min 2 min 108 W/m 12,9 km/h (3 Bft) 96,30 %
03.12.2018 12:00 13,0 C 13,3 C 11,7 C 91 % 999,1 hPa 0,0 l/m 2 min 2 min 204 W/m 9,7 km/h (2 Bft) 98,00 %
03.12.2018 12:02 13,1 C 13,9 C 12,2 C 91 % 999,0 hPa 0,0 l/m 2 min 0 min 253 W/m 16,1 km/h (3 Bft) 97,22 %
03.12.2018 12:04 13,1 C 15,6 C 12,2 C 91 % 999,0 hPa 0,0 l/m 2 min 0 min 243 W/m 12,9 km/h (3 Bft) 97,87 %
03.12.2018 12:08 13,2 C 16,1 C 12,8 C 91 % 998,9 hPa 0,0 l/m 4 min 0 min 260 W/m 19,3 km/h (3 Bft) 98,02 %
03.12.2018 12:10 13,3 C 15,6 C 12,8 C 91 % 999,0 hPa 0,0 l/m 2 min 0 min 185 W/m 16,1 km/h (3 Bft) 98,00 %
03.12.2018 12:12 13,3 C 15,0 C 12,2 C 91 % 999,0 hPa 0,0 l/m 0 min 0 min 138 W/m 16,1 km/h (3 Bft) 95,65 %
03.12.2018 12:14 13,3 C 14,4 C 12,2 C 91 % 999,0 hPa 0,0 l/m 0 min 0 min 139 W/m 16,1 km/h (3 Bft) 97,87 %
03.12.2018 12:16 13,4 C 15,6 C 12,2 C 91 % 998,9 hPa 0,0 l/m 2 min 0 min 247 W/m 29,0 km/h (5 Bft) 97,30 %
03.12.2018 12:18 13,4 C 17,2 C 12,8 C 91 % 998,9 hPa 0,0 l/m 2 min 0 min 377 W/m 19,3 km/h (3 Bft) 95,74 %
03.12.2018 12:20 13,5 C 16,7 C 12,8 C 91 % 998,8 hPa 0,0 l/m 2 min 0 min 229 W/m 16,1 km/h (3 Bft) 98,15 %
03.12.2018 12:22 13,6 C 16,1 C 12,8 C 91 % 998,9 hPa 0,0 l/m 2 min 0 min 263 W/m 22,5 km/h (4 Bft) 96,00 %
03.12.2018 12:24 13,6 C 15,6 C 12,8 C 90 % 998,9 hPa 0,0 l/m 2 min 0 min 238 W/m 19,3 km/h (3 Bft) 100,00 %
03.12.2018 12:26 13,7 C 15,6 C 12,8 C 90 % 998,9 hPa 0,0 l/m 0 min 0 min 141 W/m 12,9 km/h (3 Bft) 97,87 %
03.12.2018 12:28 13,7 C 14,4 C 12,8 C 90 % 998,9 hPa 0,0 l/m 0 min 0 min 93 W/m 22,5 km/h (4 Bft) 97,87 %
03.12.2018 12:30 13,7 C 14,4 C 12,8 C 89 % 998,9 hPa 0,0 l/m 0 min 0 min 85 W/m 16,1 km/h (3 Bft) 100,00 %
03.12.2018 12:32 13,7 C 14,4 C 12,8 C 89 % 998,8 hPa 0,0 l/m 0 min 0 min 117 W/m 25,7 km/h (4 Bft) 100,00 %
03.12.2018 12:34 13,7 C 14,4 C 12,8 C 89 % 998,8 hPa 0,0 l/m 0 min 0 min 130 W/m 12,9 km/h (3 Bft) 97,87 %
03.12.2018 12:36 13,7 C 14,4 C 12,8 C 89 % 998,8 hPa 0,0 l/m 0 min 0 min 115 W/m 16,1 km/h (3 Bft) 100,00 %
03.12.2018 12:38 13,7 C 13,9 C 12,8 C 89 % 998,8 hPa 0,0 l/m 0 min 0 min 111 W/m 9,7 km/h (2 Bft) 100,00 %
03.12.2018 12:40 13,7 C 13,9 C 12,2 C 89 % 998,8 hPa 0,0 l/m 0 min 0 min 106 W/m 9,7 km/h (2 Bft) 97,87 %
03.12.2018 12:42 13,7 C 13,9 C 12,8 C 89 % 998,8 hPa 0,0 l/m 0 min 0 min 100 W/m 16,1 km/h (3 Bft) 100,00 %
03.12.2018 12:44 13,7 C 13,3 C 12,8 C 89 % 998,7 hPa 0,0 l/m 0 min 0 min 99 W/m 22,5 km/h (4 Bft) 100,00 %
03.12.2018 12:46 13,7 C 13,3 C 12,2 C 88 % 998,7 hPa 0,0 l/m 0 min 0 min 92 W/m 12,9 km/h (3 Bft) 100,00 %
03.12.2018 12:48 13,7 C 13,3 C 12,8 C 88 % 998,7 hPa 0,0 l/m 0 min 0 min 111 W/m 12,9 km/h (3 Bft) 100,00 %
03.12.2018 12:50 13,7 C 13,3 C 12,2 C 88 % 998,5 hPa 0,0 l/m 0 min 0 min 113 W/m 16,1 km/h (3 Bft) 100,00 %
03.12.2018 12:52 13,7 C 13,3 C 12,2 C 88 % 998,6 hPa 0,0 l/m 0 min 2 min 103 W/m 16,1 km/h (3 Bft) 97,87 %
03.12.2018 12:54 13,7 C 13,3 C 12,2 C 88 % 998,6 hPa 0,0 l/m 0 min 2 min 106 W/m 19,3 km/h (3 Bft) 97,87 %
03.12.2018 12:56 13,6 C 13,3 C 12,2 C 88 % 998,6 hPa 0,0 l/m 0 min 2 min 120 W/m 22,5 km/h (4 Bft) 100,00 %
03.12.2018 12:58 13,6 C 13,9 C 12,2 C 88 % 998,5 hPa 0,0 l/m 2 min 2 min 177 W/m 9,7 km/h (2 Bft) 98,00 %
03.12.2018 13:00 13,7 C 16,1 C 12,2 C 89 % 998,5 hPa 0,0 l/m 2 min 0 min 185 W/m 9,7 km/h (2 Bft) 100,00 %
03.12.2018 13:02 13,7 C 16,7 C 12,8 C 89 % 998,4 hPa 0,0 l/m 2 min 0 min 289 W/m 12,9 km/h (3 Bft) 97,30 %
03.12.2018 13:04 13,8 C 16,1 C 12,8 C 89 % 998,5 hPa 0,0 l/m 2 min 0 min 205 W/m 12,9 km/h (3 Bft) 100,00 %
03.12.2018 13:06 13,8 C 15,0 C 12,8 C 89 % 998,5 hPa 0,0 l/m 0 min 0 min 122 W/m 12,9 km/h (3 Bft) 98,28 %
03.12.2018 13:08 13,9 C 14,4 C 12,8 C 88 % 998,4 hPa 0,0 l/m 0 min 0 min 66 W/m 19,3 km/h (3 Bft) 100,00 %
03.12.2018 13:10 13,8 C 13,9 C 12,8 C 88 % 998,5 hPa 0,0 l/m 0 min 0 min 62 W/m 16,1 km/h (3 Bft) 100,00 %
03.12.2018 13:12 13,8 C 13,3 C 12,2 C 88 % 998,5 hPa 0,0 l/m 0 min 0 min 44 W/m 12,9 km/h (3 Bft) 97,87 %
03.12.2018 13:14 13,8 C 13,3 C 12,2 C 87 % 998,5 hPa 0,0 l/m 0 min 0 min 46 W/m 16,1 km/h (3 Bft) 100,00 %
03.12.2018 13:16 13,8 C 13,3 C 12,2 C 87 % 998,4 hPa 0,0 l/m 0 min 0 min 93 W/m 19,3 km/h (3 Bft) 98,15 %
03.12.2018 13:18 13,7 C 13,3 C 12,2 C 87 % 998,4 hPa 0,0 l/m 0 min 0 min 136 W/m 22,5 km/h (4 Bft) 97,87 %
03.12.2018 13:20 13,7 C 13,9 C 12,8 C 87 % 998,4 hPa 0,0 l/m 0 min 0 min 145 W/m 9,7 km/h (2 Bft) 98,00 %
03.12.2018 13:22 13,7 C 13,9 C 12,8 C 87 % 998,3 hPa 0,0 l/m 0 min 0 min 149 W/m 16,1 km/h (3 Bft) 95,74 %
03.12.2018 13:24 13,7 C 13,9 C 12,8 C 87 % 998,2 hPa 0,0 l/m 0 min 0 min 142 W/m 9,7 km/h (2 Bft) 97,22 %
03.12.2018 13:26 13,8 C 13,9 C 12,8 C 88 % 998,3 hPa 0,0 l/m 0 min 0 min 111 W/m 12,9 km/h (3 Bft) 97,87 %
03.12.2018 13:28 13,8 C 13,9 C 12,8 C 88 % 998,3 hPa 0,0 l/m 0 min 0 min 129 W/m 9,7 km/h (2 Bft) 95,74 %
03.12.2018 13:30 13,8 C 13,9 C 12,8 C 88 % 998,3 hPa 0,0 l/m 0 min 0 min 139 W/m 22,5 km/h (4 Bft) 93,62 %
03.12.2018 13:32 13,8 C 14,4 C 12,8 C 88 % 998,2 hPa 0,0 l/m 2 min 0 min 167 W/m 16,1 km/h (3 Bft) 95,65 %
03.12.2018 13:34 13,8 C 14,4 C 12,8 C 88 % 998,2 hPa 0,0 l/m 2 min 0 min 175 W/m 19,3 km/h (3 Bft) 95,74 %
03.12.2018 13:36 13,8 C 14,4 C 12,8 C 88 % 998,2 hPa 0,0 l/m 0 min 0 min 135 W/m 32,2 km/h (5 Bft) 96,61 %
03.12.2018 13:38 13,9 C 14,4 C 12,8 C 88 % 998,1 hPa 0,0 l/m 2 min 0 min 163 W/m 19,3 km/h (3 Bft) 94,29 %
03.12.2018 13:40 13,9 C 14,4 C 12,8 C 87 % 998,2 hPa 0,0 l/m 0 min 0 min 86 W/m 12,9 km/h (3 Bft) 95,74 %
03.12.2018 13:42 13,9 C 14,4 C 12,8 C 88 % 998,1 hPa 0,0 l/m 0 min 0 min 65 W/m 25,7 km/h (4 Bft) 93,62 %
03.12.2018 13:44 13,9 C 14,4 C 12,8 C 87 % 998,2 hPa 0,0 l/m 0 min 0 min 80 W/m 22,5 km/h (4 Bft) 95,65 %
03.12.2018 13:46 14,0 C 15,6 C 12,8 C 87 % 998,1 hPa 0,0 l/m 2 min 0 min 229 W/m 16,1 km/h (3 Bft) 89,36 %
03.12.2018 13:48 14,2 C 16,1 C 12,8 C 87 % 998,1 hPa 0,0 l/m 2 min 0 min 230 W/m 6,4 km/h (2 Bft) 96,30 %
03.12.2018 13:50 14,2 C 15,6 C 12,8 C 87 % 998,0 hPa 0,0 l/m 2 min 0 min 156 W/m 12,9 km/h (3 Bft) 96,00 %
03.12.2018 13:52 14,2 C 14,4 C 12,8 C 87 % 997,9 hPa 0,0 l/m 0 min 0 min 93 W/m 25,7 km/h (4 Bft) 94,59 %
03.12.2018 13:54 14,2 C 14,4 C 12,8 C 86 % 997,9 hPa 0,0 l/m 0 min 0 min 117 W/m 19,3 km/h (3 Bft) 95,74 %
03.12.2018 13:56 14,2 C 14,4 C 12,8 C 86 % 997,9 hPa 0,0 l/m 2 min 0 min 150 W/m 12,9 km/h (3 Bft) 95,65 %
03.12.2018 13:58 14,2 C 14,4 C 12,8 C 86 % 997,8 hPa 0,0 l/m 0 min 0 min 75 W/m 16,1 km/h (3 Bft) 95,74 %
03.12.2018 14:00 14,2 C 13,9 C 12,8 C 86 % 997,8 hPa 0,0 l/m 0 min 0 min 71 W/m 29,0 km/h (5 Bft) 98,15 %
03.12.2018 14:02 14,2 C 13,9 C 12,8 C 86 % 997,8 hPa 0,0 l/m 0 min 0 min 76 W/m 12,9 km/h (3 Bft) 98,00 %
03.12.2018 14:04 14,2 C 13,9 C 12,8 C 86 % 997,7 hPa 0,0 l/m 0 min 0 min 81 W/m 25,7 km/h (4 Bft) 97,30 %
03.12.2018 14:06 14,1 C 13,9 C 12,8 C 86 % 997,7 hPa 0,0 l/m 0 min 0 min 100 W/m 19,3 km/h (3 Bft) 97,87 %
03.12.2018 14:08 14,0 C 13,9 C 12,8 C 86 % 997,7 hPa 0,0 l/m 0 min 0 min 122 W/m 19,3 km/h (3 Bft) 97,83 %
03.12.2018 14:10 14,0 C 13,9 C 12,8 C 86 % 997,6 hPa 0,0 l/m 0 min 0 min 86 W/m 16,1 km/h (3 Bft) 97,87 %
03.12.2018 14:12 14,0 C 13,9 C 12,8 C 86 % 997,6 hPa 0,0 l/m 0 min 0 min 80 W/m 9,7 km/h (2 Bft) 96,23 %
03.12.2018 14:14 13,9 C 13,9 C 12,8 C 86 % 997,5 hPa 0,0 l/m 0 min 0 min 79 W/m 22,5 km/h (4 Bft) 98,00 %
03.12.2018 14:16 13,9 C 13,9 C 12,8 C 86 % 997,6 hPa 0,0 l/m 0 min 0 min 74 W/m 22,5 km/h (4 Bft) 97,37 %
03.12.2018 14:18 13,9 C 13,9 C 12,8 C 86 % 997,5 hPa 0,0 l/m 0 min 0 min 69 W/m 29,0 km/h (5 Bft) 100,00 %
03.12.2018 14:20 13,9 C 13,9 C 12,8 C 86 % 997,6 hPa 0,0 l/m 0 min 0 min 79 W/m 19,3 km/h (3 Bft) 100,00 %
03.12.2018 14:22 13,9 C 13,9 C 12,8 C 86 % 997,6 hPa 0,0 l/m 0 min 0 min 72 W/m 16,1 km/h (3 Bft) 100,00 %
03.12.2018 14:24 13,9 C 13,9 C 12,8 C 86 % 997,7 hPa 0,0 l/m 0 min 0 min 68 W/m 12,9 km/h (3 Bft) 100,00 %
03.12.2018 14:26 13,9 C 13,9 C 12,8 C 86 % 997,7 hPa 0,0 l/m 0 min 0 min 76 W/m 19,3 km/h (3 Bft) 97,87 %
03.12.2018 14:28 13,9 C 13,9 C 12,8 C 86 % 997,8 hPa 0,0 l/m 0 min 0 min 110 W/m 16,1 km/h (3 Bft) 97,87 %
03.12.2018 14:30 13,9 C 13,9 C 12,8 C 87 % 997,7 hPa 0,0 l/m 0 min 0 min 109 W/m 19,3 km/h (3 Bft) 100,00 %
03.12.2018 14:32 13,9 C 13,9 C 12,8 C 86 % 997,7 hPa 0,0 l/m 0 min 0 min 99 W/m 32,2 km/h (5 Bft) 100,00 %
03.12.2018 14:34 13,9 C 13,9 C 12,8 C 86 % 997,7 hPa 0,0 l/m 0 min 0 min 68 W/m 22,5 km/h (4 Bft) 100,00 %
03.12.2018 14:36 13,9 C 13,3 C 12,8 C 86 % 997,6 hPa 0,0 l/m 0 min 0 min 42 W/m 16,1 km/h (3 Bft) 100,00 %
03.12.2018 14:38 13,9 C 13,3 C 12,2 C 86 % 997,6 hPa 0,0 l/m 0 min 0 min 26 W/m 12,9 km/h (3 Bft) 97,87 %
03.12.2018 14:40 14,0 C 13,3 C 11,7 C 86 % 997,5 hPa 0,0 l/m 0 min 0 min 28 W/m 12,9 km/h (3 Bft) 100,00 %
03.12.2018 14:42 14,0 C 13,3 C 11,7 C 86 % 997,5 hPa 0,0 l/m 0 min 0 min 41 W/m 12,9 km/h (3 Bft) 98,00 %
03.12.2018 14:44 14,0 C 13,3 C 12,2 C 86 % 997,5 hPa 0,0 l/m 0 min 0 min 46 W/m 25,7 km/h (4 Bft) 97,87 %
03.12.2018 14:46 14,0 C 12,8 C 12,2 C 86 % 997,6 hPa 0,0 l/m 0 min 2 min 33 W/m 16,1 km/h (3 Bft) 100,00 %
03.12.2018 14:48 14,0 C 12,8 C 12,2 C 87 % 997,5 hPa 0,0 l/m 0 min 2 min 28 W/m 16,1 km/h (3 Bft) 97,87 %
03.12.2018 14:50 14,0 C 12,8 C 12,2 C 87 % 997,5 hPa 0,0 l/m 0 min 2 min 27 W/m 9,7 km/h (2 Bft) 100,00 %
03.12.2018 14:52 13,9 C 12,8 C 12,2 C 87 % 997,4 hPa 0,0 l/m 0 min 0 min 41 W/m 9,7 km/h (2 Bft) 100,00 %
03.12.2018 14:54 13,9 C 12,8 C 12,2 C 87 % 997,4 hPa 0,0 l/m 0 min 2 min 86 W/m 16,1 km/h (3 Bft) 97,87 %
03.12.2018 14:56 13,9 C 13,3 C 12,2 C 87 % 997,4 hPa 0,0 l/m 2 min 0 min 93 W/m 22,5 km/h (4 Bft) 100,00 %
03.12.2018 14:58 13,9 C 13,3 C 12,8 C 87 % 997,4 hPa 0,0 l/m 0 min 2 min 89 W/m 32,2 km/h (5 Bft) 97,96 %
03.12.2018 15:00 13,9 C 13,3 C 12,8 C 87 % 997,7 hPa 0,0 l/m 0 min 2 min 86 W/m 29,0 km/h (5 Bft) 100,00 %
03.12.2018 15:02 13,9 C 13,3 C 12,8 C 87 % 997,6 hPa 0,0 l/m 0 min 2 min 85 W/m 22,5 km/h (4 Bft) 97,87 %
03.12.2018 15:04 13,9 C 13,3 C 12,8 C 88 % 997,6 hPa 0,0 l/m 0 min 0 min 83 W/m 29,0 km/h (5 Bft) 94,74 %
03.12.2018 15:06 13,8 C 13,3 C 12,8 C 88 % 997,4 hPa 0,0 l/m 0 min 0 min 82 W/m 19,3 km/h (3 Bft) 97,83 %
03.12.2018 15:08 13,8 C 13,3 C 12,8 C 88 % 997,5 hPa 0,0 l/m 0 min 0 min 76 W/m 19,3 km/h (3 Bft) 97,87 %
03.12.2018 15:10 13,8 C 13,3 C 12,8 C 88 % 997,5 hPa 0,0 l/m 0 min 0 min 71 W/m 16,1 km/h (3 Bft) 97,87 %
03.12.2018 15:12 13,8 C 13,3 C 12,2 C 88 % 997,4 hPa 0,0 l/m 0 min 0 min 64 W/m 12,9 km/h (3 Bft) 96,23 %
03.12.2018 15:14 13,8 C 13,3 C 12,2 C 88 % 997,4 hPa 0,0 l/m 0 min 0 min 57 W/m 16,1 km/h (3 Bft) 97,87 %
03.12.2018 15:16 13,8 C 13,3 C 12,2 C 88 % 997,5 hPa 0,0 l/m 0 min 0 min 47 W/m 12,9 km/h (3 Bft) 97,87 %
03.12.2018 15:18 13,8 C 13,3 C 12,2 C 88 % 997,4 hPa 0,0 l/m 0 min 0 min 45 W/m 16,1 km/h (3 Bft) 98,00 %
03.12.2018 15:20 13,7 C 13,3 C 12,2 C 88 % 997,4 hPa 0,0 l/m 0 min 0 min 40 W/m 25,7 km/h (4 Bft) 97,83 %
03.12.2018 15:22 13,7 C 13,3 C 12,2 C 88 % 997,3 hPa 0,0 l/m 0 min 0 min 33 W/m 12,9 km/h (3 Bft) 94,74 %
03.12.2018 15:24 13,7 C 12,8 C 12,2 C 88 % 997,4 hPa 0,0 l/m 0 min 0 min 32 W/m 12,9 km/h (3 Bft) 97,87 %
03.12.2018 15:26 13,7 C 12,8 C 12,2 C 88 % 997,4 hPa 0,0 l/m 0 min 0 min 32 W/m 19,3 km/h (3 Bft) 97,87 %
03.12.2018 15:28 13,7 C 12,8 C 12,2 C 88 % 997,5 hPa 0,0 l/m 0 min 0 min 28 W/m 19,3 km/h (3 Bft) 97,87 %
03.12.2018 15:30 13,7 C 12,8 C 12,2 C 88 % 997,4 hPa 0,0 l/m 0 min 2 min 26 W/m 9,7 km/h (2 Bft) 98,11 %
03.12.2018 15:32 13,7 C 12,8 C 11,7 C 88 % 997,3 hPa 0,0 l/m 0 min 2 min 29 W/m 25,7 km/h (4 Bft) 97,96 %
03.12.2018 15:34 13,7 C 12,8 C 12,2 C 89 % 997,3 hPa 0,0 l/m 0 min 0 min 31 W/m 25,7 km/h (4 Bft) 97,87 %
03.12.2018 15:36 13,6 C 12,8 C 12,2 C 89 % 997,4 hPa 0,0 l/m 0 min 0 min 29 W/m 19,3 km/h (3 Bft) 94,00 %
03.12.2018 15:38 13,6 C 12,8 C 12,2 C 89 % 997,4 hPa 0,0 l/m 0 min 0 min 25 W/m 12,9 km/h (3 Bft) 97,14 %
03.12.2018 15:40 13,6 C 12,8 C 12,2 C 89 % 997,4 hPa 0,0 l/m 0 min 0 min 23 W/m 19,3 km/h (3 Bft) 95,74 %
03.12.2018 15:42 13,6 C 11,7 C 11,7 C 89 % 997,3 hPa 0,0 l/m 0 min 2 min 21 W/m 19,3 km/h (3 Bft) 97,83 %
03.12.2018 15:44 13,5 C 11,1 C 11,1 C 89 % 997,4 hPa 0,0 l/m 0 min 2 min 16 W/m 25,7 km/h (4 Bft) 96,30 %
03.12.2018 15:46 13,4 C 11,1 C 11,1 C 89 % 997,4 hPa 0,0 l/m 0 min 2 min 13 W/m 19,3 km/h (3 Bft) 97,83 %
03.12.2018 15:48 13,4 C 11,1 C 10,6 C 89 % 997,4 hPa 0,4 l/m 0 min 2 min 11 W/m 9,7 km/h (2 Bft) 95,74 %
03.12.2018 15:50 13,4 C 11,1 C 10,6 C 90 % 997,3 hPa 0,0 l/m 0 min 2 min 8 W/m 12,9 km/h (3 Bft) 95,74 %
03.12.2018 15:52 13,3 C 11,1 C 10,6 C 90 % 997,4 hPa 0,0 l/m 0 min 2 min 9 W/m 6,4 km/h (2 Bft) 98,00 %
03.12.2018 15:54 13,3 C 11,1 C 10,6 C 90 % 997,3 hPa 0,2 l/m 0 min 2 min 9 W/m 6,4 km/h (2 Bft) 97,30 %
03.12.2018 15:56 13,3 C 11,1 C 10,6 C 90 % 997,4 hPa 0,0 l/m 0 min 0 min 9 W/m 6,4 km/h (2 Bft) 97,87 %
03.12.2018 15:58 13,2 C 11,1 C 10,6 C 91 % 997,3 hPa 0,0 l/m 0 min 0 min 9 W/m 16,1 km/h (3 Bft) 97,87 %
03.12.2018 16:00 13,2 C 11,1 C 10,6 C 91 % 997,2 hPa 0,0 l/m 0 min 0 min 9 W/m 25,7 km/h (4 Bft) 95,74 %
03.12.2018 16:02 13,2 C 11,1 C 10,6 C 91 % 997,4 hPa 0,0 l/m 0 min 0 min 12 W/m 16,1 km/h (3 Bft) 94,34 %
03.12.2018 16:04 13,1 C 11,1 C 10,6 C 91 % 997,4 hPa 0,0 l/m 0 min 0 min 14 W/m 12,9 km/h (3 Bft) 98,00 %
03.12.2018 16:06 13,1 C 11,1 C 10,6 C 91 % 997,5 hPa 0,0 l/m 0 min 0 min 14 W/m 9,7 km/h (2 Bft) 97,96 %
03.12.2018 16:08 13,0 C 11,1 C 10,6 C 91 % 997,4 hPa 0,0 l/m 0 min 0 min 14 W/m 16,1 km/h (3 Bft) 97,14 %
03.12.2018 16:10 12,9 C 11,1 C 10,6 C 91 % 997,5 hPa 0,0 l/m 0 min 0 min 13 W/m 6,4 km/h (2 Bft) 97,87 %
03.12.2018 16:12 12,9 C 11,1 C 10,6 C 92 % 997,6 hPa 0,0 l/m 0 min 0 min 11 W/m 12,9 km/h (3 Bft) 97,87 %
03.12.2018 16:14 12,9 C 11,1 C 10,6 C 92 % 997,5 hPa 0,0 l/m 0 min 0 min 8 W/m 19,3 km/h (3 Bft) 96,23 %
03.12.2018 16:16 12,9 C 11,1 C 10,6 C 92 % 997,6 hPa 0,0 l/m 0 min 0 min 6 W/m 12,9 km/h (3 Bft) 97,87 %
03.12.2018 16:18 12,8 C 11,1 C 10,6 C 92 % 997,6 hPa 0,0 l/m 0 min 0 min 5 W/m 12,9 km/h (3 Bft) 97,87 %
03.12.2018 16:20 12,8 C 11,1 C 10,6 C 92 % 997,6 hPa 0,0 l/m 0 min 0 min 1 W/m 16,1 km/h (3 Bft) 95,65 %
03.12.2018 16:22 12,8 C 11,1 C 10,6 C 92 % 997,6 hPa 0,0 l/m 0 min 0 min 0 W/m 16,1 km/h (3 Bft) 95,74 %
03.12.2018 16:24 12,8 C 11,1 C 10,6 C 92 % 997,6 hPa 0,0 l/m 0 min 0 min 0 W/m 12,9 km/h (3 Bft) 93,62 %
03.12.2018 16:26 12,7 C 11,1 C 10,6 C 92 % 997,5 hPa 0,0 l/m 0 min 0 min 0 W/m 9,7 km/h (2 Bft) 97,87 %
03.12.2018 16:28 12,7 C 11,1 C 10,6 C 92 % 997,5 hPa 0,0 l/m 0 min 0 min 0 W/m 12,9 km/h (3 Bft) 95,74 %
03.12.2018 16:30 12,7 C 11,1 C 10,6 C 92 % 997,5 hPa 0,0 l/m 0 min 0 min 0 W/m 22,5 km/h (4 Bft) 97,87 %
03.12.2018 16:32 12,7 C 11,1 C 10,6 C 92 % 997,5 hPa 0,0 l/m 0 min 0 min 0 W/m 16,1 km/h (3 Bft) 97,83 %
03.12.2018 16:34 12,7 C 11,1 C 10,6 C 92 % 997,4 hPa 0,0 l/m 0 min 0 min 0 W/m 19,3 km/h (3 Bft) 95,74 %
03.12.2018 16:36 12,7 C 11,1 C 10,6 C 92 % 997,5 hPa 0,0 l/m 0 min 0 min 0 W/m 16,1 km/h (3 Bft) 96,00 %
03.12.2018 16:38 12,7 C 11,1 C 10,6 C 92 % 997,4 hPa 0,0 l/m 0 min 0 min 0 W/m 16,1 km/h (3 Bft) 100,00 %
03.12.2018 16:40 12,6 C 11,1 C 10,6 C 92 % 997,5 hPa 0,0 l/m 0 min 0 min 0 W/m 19,3 km/h (3 Bft) 97,83 %
03.12.2018 16:42 12,6 C 11,1 C 10,6 C 92 % 997,4 hPa 0,0 l/m 0 min 0 min 0 W/m 16,1 km/h (3 Bft) 100,00 %
03.12.2018 16:44 12,6 C 11,1 C 10,6 C 92 % 997,4 hPa 0,0 l/m 0 min 0 min 0 W/m 25,7 km/h (4 Bft) 100,00 %
03.12.2018 16:46 12,6 C 11,1 C 10,6 C 92 % 997,5 hPa 0,0 l/m 0 min 0 min 0 W/m 22,5 km/h (4 Bft) 96,30 %
03.12.2018 16:48 12,6 C 11,1 C 10,6 C 92 % 997,6 hPa 0,0 l/m 0 min 0 min 0 W/m 22,5 km/h (4 Bft) 96,00 %
03.12.2018 16:50 12,6 C 11,1 C 10,6 C 92 % 997,6 hPa 0,0 l/m 0 min 0 min 0 W/m 25,7 km/h (4 Bft) 95,74 %
03.12.2018 16:52 12,6 C 11,1 C 10,6 C 92 % 997,6 hPa 0,0 l/m 0 min 0 min 0 W/m 29,0 km/h (5 Bft) 97,87 %
03.12.2018 16:54 12,6 C 11,1 C 10,6 C 92 % 997,6 hPa 0,0 l/m 0 min 0 min 0 W/m 12,9 km/h (3 Bft) 95,65 %
03.12.2018 16:56 12,6 C 11,1 C 10,6 C 92 % 997,6 hPa 0,0 l/m 0 min 0 min 0 W/m 16,1 km/h (3 Bft) 97,30 %
03.12.2018 16:58 12,6 C 11,1 C 10,6 C 92 % 997,5 hPa 0,0 l/m 0 min 0 min 0 W/m 16,1 km/h (3 Bft) 97,87 %
03.12.2018 17:00 12,5 C 11,1 C 10,6 C 92 % 997,6 hPa 0,0 l/m 0 min 0 min 0 W/m 25,7 km/h (4 Bft) 98,15 %
03.12.2018 17:02 12,5 C 11,1 C 10,6 C 92 % 997,7 hPa 0,0 l/m 0 min 0 min 0 W/m 16,1 km/h (3 Bft) 98,00 %
03.12.2018 17:04 12,5 C 11,1 C 10,6 C 92 % 997,5 hPa 0,0 l/m 0 min 0 min 0 W/m 19,3 km/h (3 Bft) 97,87 %
03.12.2018 17:06 12,4 C 11,1 C 10,6 C 92 % 997,7 hPa 0,0 l/m 0 min 0 min 0 W/m 16,1 km/h (3 Bft) 97,22 %
03.12.2018 17:08 12,4 C 11,1 C 10,6 C 92 % 997,6 hPa 0,0 l/m 0 min 0 min 0 W/m 9,7 km/h (2 Bft) 95,74 %
03.12.2018 17:10 12,4 C 10,6 C 10,6 C 92 % 997,6 hPa 0,0 l/m 0 min 0 min 0 W/m 16,1 km/h (3 Bft) 98,11 %
03.12.2018 17:12 12,3 C 10,6 C 10,6 C 92 % 997,6 hPa 0,0 l/m 0 min 0 min 0 W/m 12,9 km/h (3 Bft) 98,00 %
03.12.2018 17:14 12,3 C 10,6 C 10,0 C 91 % 997,6 hPa 0,0 l/m 0 min 0 min 0 W/m 22,5 km/h (4 Bft) 97,87 %
03.12.2018 17:16 12,2 C 10,6 C 10,0 C 91 % 997,6 hPa 0,0 l/m 0 min 0 min 0 W/m 9,7 km/h (2 Bft) 97,30 %
03.12.2018 17:18 12,2 C 10,6 C 10,0 C 92 % 997,7 hPa 0,0 l/m 0 min 0 min 0 W/m 16,1 km/h (3 Bft) 97,87 %
03.12.2018 17:20 12,2 C 10,6 C 10,0 C 92 % 997,6 hPa 0,0 l/m 0 min 0 min 0 W/m 12,9 km/h (3 Bft) 95,74 %
03.12.2018 17:22 12,1 C 10,6 C 10,0 C 92 % 997,6 hPa 0,0 l/m 0 min 0 min 0 W/m 16,1 km/h (3 Bft) 97,87 %
03.12.2018 17:24 12,1 C 10,6 C 10,0 C 92 % 997,6 hPa 0,0 l/m 0 min 0 min 0 W/m 9,7 km/h (2 Bft) 98,11 %
03.12.2018 17:26 12,1 C 10,6 C 10,0 C 92 % 997,5 hPa 0,0 l/m 0 min 0 min 0 W/m 16,1 km/h (3 Bft) 97,87 %
03.12.2018 17:28 12,0 C 10,6 C 10,0 C 92 % 997,7 hPa 0,0 l/m 0 min 0 min 0 W/m 9,7 km/h (2 Bft) 97,87 %
03.12.2018 17:30 12,0 C 10,6 C 10,0 C 92 % 997,6 hPa 0,0 l/m 0 min 0 min 0 W/m 9,7 km/h (2 Bft) 97,83 %
03.12.2018 17:32 12,0 C 10,6 C 10,6 C 92 % 997,6 hPa 0,0 l/m 0 min 0 min 0 W/m 9,7 km/h (2 Bft) 95,74 %
03.12.2018 17:34 12,0 C 10,6 C 10,6 C 92 % 997,7 hPa 0,0 l/m 0 min 0 min 0 W/m 12,9 km/h (3 Bft) 97,87 %
03.12.2018 17:36 11,9 C 10,6 C 10,6 C 92 % 997,6 hPa 0,0 l/m 0 min 0 min 0 W/m 12,9 km/h (3 Bft) 94,00 %
03.12.2018 17:38 11,9 C 10,6 C 10,6 C 92 % 997,7 hPa 0,0 l/m 0 min 0 min 0 W/m 12,9 km/h (3 Bft) 91,49 %
03.12.2018 17:40 11,9 C 10,6 C 10,6 C 92 % 997,7 hPa 0,0 l/m 0 min 0 min 0 W/m 16,1 km/h (3 Bft) 95,65 %
03.12.2018 17:42 11,9 C 10,6 C 10,6 C 92 % 997,7 hPa 0,0 l/m 0 min 0 min 0 W/m 12,9 km/h (3 Bft) 97,37 %
03.12.2018 17:44 11,9 C 10,6 C 10,6 C 92 % 997,8 hPa 0,0 l/m 0 min 0 min 0 W/m 16,1 km/h (3 Bft) 97,87 %
03.12.2018 17:46 11,9 C 10,6 C 10,6 C 93 % 997,7 hPa 0,0 l/m 0 min 0 min 0 W/m 16,1 km/h (3 Bft) 91,49 %
03.12.2018 17:48 11,9 C 10,6 C 10,6 C 93 % 997,7 hPa 0,0 l/m 0 min 0 min 0 W/m 12,9 km/h (3 Bft) 100,00 %
03.12.2018 17:50 11,9 C 10,6 C 10,6 C 93 % 997,6 hPa 0,0 l/m 0 min 0 min 0 W/m 12,9 km/h (3 Bft) 95,74 %
03.12.2018 17:52 11,8 C 10,6 C 10,6 C 93 % 997,8 hPa 0,0 l/m 0 min 0 min 0 W/m 16,1 km/h (3 Bft) 97,96 %
03.12.2018 17:54 11,8 C 10,6 C 10,6 C 93 % 997,7 hPa 0,0 l/m 0 min 0 min 0 W/m 16,1 km/h (3 Bft) 97,87 %
03.12.2018 17:56 11,8 C 10,6 C 10,6 C 93 % 997,6 hPa 0,0 l/m 0 min 0 min 0 W/m 16,1 km/h (3 Bft) 95,74 %
03.12.2018 17:58 11,8 C 10,6 C 10,6 C 93 % 997,6 hPa 0,0 l/m 0 min 0 min 0 W/m 12,9 km/h (3 Bft) 97,87 %
03.12.2018 18:00 11,8 C 10,6 C 10,6 C 93 % 997,7 hPa 0,0 l/m 0 min 0 min 0 W/m 6,4 km/h (2 Bft) 94,74 %
03.12.2018 18:02 11,8 C 10,6 C 10,6 C 93 % 997,8 hPa 0,0 l/m 0 min 0 min 0 W/m 12,9 km/h (3 Bft) 95,92 %
03.12.2018 18:04 11,8 C 10,6 C 10,6 C 93 % 997,7 hPa 0,0 l/m 0 min 0 min 0 W/m 16,1 km/h (3 Bft) 97,87 %
03.12.2018 18:08 11,8 C 10,6 C 10,6 C 93 % 997,8 hPa 0,0 l/m 0 min 0 min 0 W/m 16,1 km/h (3 Bft) 97,87 %
03.12.2018 18:10 11,8 C 10,6 C 10,6 C 93 % 997,7 hPa 0,0 l/m 0 min 0 min 0 W/m 9,7 km/h (2 Bft) 95,74 %
03.12.2018 18:12 11,8 C 10,6 C 10,6 C 93 % 997,6 hPa 0,0 l/m 0 min 0 min 0 W/m 9,7 km/h (2 Bft) 96,23 %
03.12.2018 18:14 11,8 C 10,6 C 10,6 C 93 % 997,6 hPa 0,0 l/m 0 min 0 min 0 W/m 12,9 km/h (3 Bft) 97,87 %
03.12.2018 18:16 11,8 C 10,6 C 10,6 C 93 % 997,7 hPa 0,0 l/m 0 min 0 min 0 W/m 12,9 km/h (3 Bft) 97,37 %
03.12.2018 18:18 11,8 C 10,6 C 10,6 C 94 % 997,6 hPa 0,0 l/m 0 min 0 min 0 W/m 25,7 km/h (4 Bft) 93,48 %
03.12.2018 18:20 11,8 C 10,6 C 10,6 C 94 % 997,5 hPa 0,0 l/m 0 min 0 min 0 W/m 19,3 km/h (3 Bft) 98,00 %
03.12.2018 18:22 11,8 C 10,6 C 10,6 C 94 % 997,5 hPa 0,0 l/m 0 min 0 min 0 W/m 12,9 km/h (3 Bft) 97,87 %
03.12.2018 18:24 11,8 C 10,6 C 10,6 C 94 % 997,6 hPa 0,0 l/m 0 min 0 min 0 W/m 9,7 km/h (2 Bft) 97,83 %
03.12.2018 18:26 11,7 C 10,6 C 10,6 C 94 % 997,7 hPa 0,0 l/m 0 min 0 min 0 W/m 9,7 km/h (2 Bft) 97,87 %
03.12.2018 18:28 11,7 C 10,6 C 10,6 C 94 % 997,6 hPa 0,0 l/m 0 min 0 min 0 W/m 6,4 km/h (2 Bft) 96,23 %
03.12.2018 18:30 11,7 C 10,6 C 10,6 C 94 % 997,6 hPa 0,0 l/m 0 min 0 min 0 W/m 16,1 km/h (3 Bft) 100,00 %
03.12.2018 18:32 11,7 C 10,6 C 10,6 C 94 % 997,7 hPa 0,0 l/m 0 min 0 min 0 W/m 16,1 km/h (3 Bft) 95,74 %
03.12.2018 18:34 11,7 C 10,6 C 10,6 C 94 % 997,7 hPa 0,0 l/m 0 min 0 min 0 W/m 19,3 km/h (3 Bft) 98,00 %
03.12.2018 18:36 11,7 C 10,6 C 10,6 C 94 % 997,7 hPa 0,0 l/m 0 min 0 min 0 W/m 19,3 km/h (3 Bft) 95,65 %
03.12.2018 18:38 11,7 C 10,6 C 10,6 C 94 % 997,7 hPa 0,0 l/m 0 min 0 min 0 W/m 12,9 km/h (3 Bft) 100,00 %
03.12.2018 18:40 11,7 C 10,6 C 10,6 C 94 % 997,7 hPa 0,0 l/m 0 min 0 min 0 W/m 12,9 km/h (3 Bft) 100,00 %
03.12.2018 18:42 11,7 C 10,6 C 10,6 C 94 % 997,7 hPa 0,0 l/m 0 min 0 min 0 W/m 16,1 km/h (3 Bft) 100,00 %
03.12.2018 18:44 11,7 C 10,6 C 10,6 C 94 % 997,8 hPa 0,0 l/m 0 min 0 min 0 W/m 12,9 km/h (3 Bft) 97,37 %
03.12.2018 18:46 11,7 C 10,6 C 10,6 C 94 % 997,7 hPa 0,0 l/m 0 min 0 min 0 W/m 9,7 km/h (2 Bft) 97,87 %
03.12.2018 18:48 11,7 C 10,6 C 10,6 C 94 % 997,8 hPa 0,0 l/m 0 min 0 min 0 W/m 16,1 km/h (3 Bft) 97,87 %
03.12.2018 18:50 11,7 C 10,6 C 10,6 C 94 % 997,8 hPa 0,0 l/m 0 min 0 min 0 W/m 16,1 km/h (3 Bft) 97,96 %
03.12.2018 18:52 11,7 C 10,6 C 10,6 C 94 % 997,9 hPa 0,0 l/m 0 min 0 min 0 W/m 12,9 km/h (3 Bft) 97,87 %
03.12.2018 18:54 11,7 C 10,6 C 10,6 C 94 % 997,9 hPa 0,0 l/m 0 min 0 min 0 W/m 16,1 km/h (3 Bft) 97,87 %
03.12.2018 18:56 11,7 C 10,6 C 10,6 C 94 % 997,9 hPa 0,0 l/m 0 min 0 min 0 W/m 19,3 km/h (3 Bft) 97,87 %
03.12.2018 18:58 11,7 C 10,6 C 10,6 C 94 % 997,9 hPa 0,0 l/m 0 min 0 min 0 W/m 12,9 km/h (3 Bft) 95,74 %
03.12.2018 19:00 11,7 C 10,6 C 10,6 C 94 % 997,9 hPa 0,0 l/m 0 min 0 min 0 W/m 16,1 km/h (3 Bft) 95,65 %
03.12.2018 19:02 11,7 C 10,6 C 10,6 C 94 % 997,9 hPa 0,0 l/m 0 min 0 min 0 W/m 16,1 km/h (3 Bft) 98,15 %
03.12.2018 19:04 11,7 C 10,6 C 10,6 C 94 % 997,9 hPa 0,0 l/m 0 min 2 min 0 W/m 9,7 km/h (2 Bft) 97,37 %
03.12.2018 19:06 11,7 C 10,6 C 10,6 C 94 % 998,0 hPa 0,0 l/m 0 min 2 min 0 W/m 9,7 km/h (2 Bft) 98,28 %
03.12.2018 19:08 11,7 C 10,6 C 10,0 C 94 % 998,0 hPa 0,0 l/m 0 min 2 min 0 W/m 9,7 km/h (2 Bft) 97,37 %
03.12.2018 19:10 11,7 C 10,6 C 10,0 C 94 % 998,0 hPa 0,0 l/m 0 min 2 min 0 W/m 22,5 km/h (4 Bft) 95,74 %
03.12.2018 19:12 11,7 C 10,6 C 10,0 C 94 % 997,9 hPa 0,0 l/m 0 min 2 min 0 W/m 19,3 km/h (3 Bft) 97,83 %
03.12.2018 19:14 11,7 C 10,6 C 10,0 C 94 % 998,0 hPa 0,0 l/m 0 min 2 min 0 W/m 9,7 km/h (2 Bft) 97,87 %
03.12.2018 19:16 11,7 C 10,6 C 10,0 C 94 % 998,0 hPa 0,0 l/m 0 min 2 min 0 W/m 25,7 km/h (4 Bft) 96,23 %
03.12.2018 19:18 11,7 C 10,6 C 10,0 C 94 % 998,1 hPa 0,0 l/m 0 min 2 min 0 W/m 16,1 km/h (3 Bft) 97,37 %
03.12.2018 19:20 11,7 C 10,6 C 10,0 C 94 % 998,1 hPa 0,0 l/m 0 min 2 min 0 W/m 9,7 km/h (2 Bft) 98,00 %
03.12.2018 19:22 11,7 C 10,6 C 10,0 C 94 % 998,0 hPa 0,0 l/m 0 min 2 min 0 W/m 9,7 km/h (2 Bft) 95,65 %
03.12.2018 19:24 11,7 C 10,0 C 10,0 C 94 % 998,1 hPa 0,2 l/m 0 min 2 min 0 W/m 16,1 km/h (3 Bft) 97,87 %
03.12.2018 19:26 11,7 C 10,0 C 10,0 C 94 % 998,1 hPa 0,0 l/m 0 min 2 min 0 W/m 6,4 km/h (2 Bft) 97,87 %
03.12.2018 19:28 11,7 C 10,0 C 10,0 C 94 % 998,1 hPa 0,0 l/m 0 min 2 min 0 W/m 16,1 km/h (3 Bft) 98,11 %
03.12.2018 19:30 11,7 C 10,0 C 10,0 C 94 % 998,1 hPa 0,0 l/m 0 min 2 min 0 W/m 12,9 km/h (3 Bft) 94,74 %
03.12.2018 19:32 11,7 C 10,0 C 10,0 C 94 % 998,1 hPa 0,0 l/m 0 min 2 min 0 W/m 16,1 km/h (3 Bft) 98,00 %
03.12.2018 19:34 11,8 C 10,0 C 10,0 C 94 % 998,1 hPa 0,0 l/m 0 min 2 min 0 W/m 12,9 km/h (3 Bft) 100,00 %
03.12.2018 19:36 11,7 C 10,0 C 10,0 C 94 % 998,1 hPa 0,0 l/m 0 min 2 min 0 W/m 9,7 km/h (2 Bft) 97,83 %
03.12.2018 19:38 11,7 C 10,0 C 10,0 C 94 % 998,1 hPa 0,0 l/m 0 min 2 min 0 W/m 12,9 km/h (3 Bft) 100,00 %
03.12.2018 19:40 11,7 C 10,0 C 10,0 C 94 % 998,1 hPa 0,0 l/m 0 min 2 min 0 W/m 19,3 km/h (3 Bft) 100,00 %
03.12.2018 19:42 11,7 C 10,0 C 10,0 C 94 % 998,2 hPa 0,0 l/m 0 min 2 min 0 W/m 12,9 km/h (3 Bft) 97,87 %
03.12.2018 19:44 11,7 C 10,0 C 10,0 C 94 % 998,2 hPa 0,0 l/m 0 min 2 min 0 W/m 9,7 km/h (2 Bft) 100,00 %
03.12.2018 19:46 11,7 C 10,0 C 10,0 C 94 % 998,2 hPa 0,0 l/m 0 min 2 min 0 W/m 9,7 km/h (2 Bft) 98,15 %
03.12.2018 19:48 11,7 C 10,6 C 10,0 C 94 % 998,2 hPa 0,0 l/m 0 min 2 min 0 W/m 12,9 km/h (3 Bft) 100,00 %
03.12.2018 19:50 11,7 C 10,6 C 10,0 C 94 % 998,2 hPa 0,0 l/m 0 min 2 min 0 W/m 19,3 km/h (3 Bft) 100,00 %
03.12.2018 19:52 11,6 C 10,6 C 10,0 C 94 % 998,3 hPa 0,0 l/m 0 min 2 min 0 W/m 16,1 km/h (3 Bft) 100,00 %
03.12.2018 19:54 11,6 C 10,6 C 10,0 C 94 % 998,3 hPa 0,0 l/m 0 min 2 min 0 W/m 22,5 km/h (4 Bft) 95,74 %
03.12.2018 19:56 11,6 C 10,6 C 10,0 C 94 % 998,3 hPa 0,0 l/m 0 min 2 min 0 W/m 22,5 km/h (4 Bft) 100,00 %
03.12.2018 19:58 11,6 C 10,6 C 10,0 C 94 % 998,3 hPa 0,0 l/m 0 min 2 min 0 W/m 9,7 km/h (2 Bft) 100,00 %
03.12.2018 20:00 11,6 C 10,6 C 10,0 C 94 % 998,3 hPa 0,0 l/m 0 min 0 min 0 W/m 9,7 km/h (2 Bft) 100,00 %
03.12.2018 20:02 11,7 C 10,6 C 10,0 C 94 % 998,4 hPa 0,0 l/m 0 min 2 min 0 W/m 9,7 km/h (2 Bft) 97,83 %
03.12.2018 20:04 11,6 C 10,6 C 10,0 C 94 % 998,4 hPa 0,0 l/m 0 min 2 min 0 W/m 12,9 km/h (3 Bft) 100,00 %
03.12.2018 20:06 11,6 C 10,6 C 10,0 C 94 % 998,4 hPa 0,0 l/m 0 min 0 min 0 W/m 9,7 km/h (2 Bft) 98,31 %
03.12.2018 20:08 11,6 C 10,6 C 10,0 C 94 % 998,5 hPa 0,0 l/m 0 min 2 min 0 W/m 16,1 km/h (3 Bft) 100,00 %
03.12.2018 20:10 11,6 C 10,6 C 10,0 C 94 % 998,4 hPa 0,0 l/m 0 min 2 min 0 W/m 19,3 km/h (3 Bft) 95,83 %
03.12.2018 20:12 11,6 C 10,0 C 10,0 C 94 % 998,6 hPa 0,0 l/m 0 min 0 min 0 W/m 12,9 km/h (3 Bft) 100,00 %
03.12.2018 20:14 11,6 C 10,0 C 10,0 C 94 % 998,5 hPa 0,0 l/m 0 min 2 min 0 W/m 9,7 km/h (2 Bft) 100,00 %
03.12.2018 20:16 11,6 C 10,0 C 10,0 C 94 % 998,6 hPa 0,0 l/m 0 min 0 min 0 W/m 9,7 km/h (2 Bft) 100,00 %
03.12.2018 20:18 11,6 C 10,0 C 10,0 C 94 % 998,6 hPa 0,0 l/m 0 min 0 min 0 W/m 12,9 km/h (3 Bft) 97,87 %
03.12.2018 20:20 11,6 C 10,0 C 10,0 C 93 % 998,6 hPa 0,0 l/m 0 min 2 min 0 W/m 9,7 km/h (2 Bft) 100,00 %
03.12.2018 20:22 11,5 C 10,0 C 10,0 C 93 % 998,5 hPa 0,0 l/m 0 min 0 min 0 W/m 9,7 km/h (2 Bft) 100,00 %
03.12.2018 20:24 11,5 C 10,0 C 10,0 C 93 % 998,6 hPa 0,0 l/m 0 min 0 min 0 W/m 9,7 km/h (2 Bft) 100,00 %
03.12.2018 20:26 11,5 C 10,0 C 9,4 C 93 % 998,6 hPa 0,0 l/m 0 min 0 min 0 W/m 6,4 km/h (2 Bft) 97,87 %
03.12.2018 20:28 11,4 C 10,0 C 9,4 C 93 % 998,7 hPa 0,0 l/m 0 min 0 min 0 W/m 9,7 km/h (2 Bft) 96,30 %
03.12.2018 20:30 11,4 C 10,0 C 9,4 C 93 % 998,7 hPa 0,0 l/m 0 min 0 min 0 W/m 9,7 km/h (2 Bft) 100,00 %
03.12.2018 20:32 11,4 C 10,6 C 10,0 C 93 % 998,7 hPa 0,0 l/m 0 min 0 min 0 W/m 22,5 km/h (4 Bft) 97,87 %
03.12.2018 20:34 11,4 C 10,6 C 10,0 C 93 % 998,8 hPa 0,0 l/m 0 min 0 min 0 W/m 9,7 km/h (2 Bft) 97,87 %
03.12.2018 20:36 11,4 C 10,6 C 10,0 C 93 % 998,8 hPa 0,0 l/m 0 min 0 min 0 W/m 12,9 km/h (3 Bft) 93,48 %
03.12.2018 20:38 11,4 C 10,6 C 10,0 C 93 % 998,8 hPa 0,0 l/m 0 min 0 min 0 W/m 9,7 km/h (2 Bft) 95,74 %
03.12.2018 20:40 11,4 C 10,6 C 10,0 C 93 % 998,8 hPa 0,0 l/m 0 min 0 min 0 W/m 12,9 km/h (3 Bft) 93,62 %
03.12.2018 20:42 11,5 C 10,6 C 10,0 C 93 % 998,8 hPa 0,0 l/m 0 min 0 min 0 W/m 9,7 km/h (2 Bft) 97,37 %
03.12.2018 20:44 11,4 C 10,6 C 10,0 C 93 % 999,0 hPa 0,0 l/m 0 min 0 min 0 W/m 16,1 km/h (3 Bft) 95,74 %
03.12.2018 20:46 11,4 C 10,6 C 10,0 C 93 % 998,9 hPa 0,0 l/m 0 min 0 min 0 W/m 16,1 km/h (3 Bft) 93,75 %
03.12.2018 20:48 11,5 C 10,6 C 10,0 C 93 % 998,9 hPa 0,0 l/m 0 min 0 min 0 W/m 12,9 km/h (3 Bft) 95,74 %
03.12.2018 20:50 11,5 C 10,6 C 10,0 C 93 % 999,0 hPa 0,0 l/m 0 min 0 min 0 W/m 12,9 km/h (3 Bft) 95,74 %
03.12.2018 20:52 11,5 C 10,6 C 10,0 C 93 % 998,9 hPa 0,0 l/m 0 min 0 min 0 W/m 9,7 km/h (2 Bft) 96,30 %
03.12.2018 20:54 11,5 C 10,6 C 10,0 C 93 % 999,1 hPa 0,0 l/m 0 min 0 min 0 W/m 9,7 km/h (2 Bft) 93,62 %
03.12.2018 20:56 11,6 C 10,6 C 10,0 C 93 % 999,1 hPa 0,0 l/m 0 min 0 min 0 W/m 19,3 km/h (3 Bft) 94,74 %
03.12.2018 20:58 11,6 C 10,6 C 10,0 C 93 % 999,1 hPa 0,0 l/m 0 min 0 min 0 W/m 19,3 km/h (3 Bft) 95,74 %
03.12.2018 21:00 11,6 C 10,6 C 10,0 C 93 % 999,0 hPa 0,0 l/m 0 min 0 min 0 W/m 22,5 km/h (4 Bft) 95,74 %
03.12.2018 21:02 11,6 C 10,6 C 10,0 C 93 % 999,1 hPa 0,0 l/m 0 min 2 min 0 W/m 22,5 km/h (4 Bft) 93,75 %
03.12.2018 21:04 11,6 C 10,6 C 10,0 C 93 % 999,1 hPa 0,0 l/m 0 min 2 min 0 W/m 12,9 km/h (3 Bft) 95,74 %
03.12.2018 21:06 11,6 C 10,6 C 10,0 C 93 % 999,2 hPa 0,0 l/m 0 min 2 min 0 W/m 16,1 km/h (3 Bft) 94,44 %
03.12.2018 21:08 11,6 C 10,6 C 10,0 C 93 % 999,2 hPa 0,0 l/m 0 min 2 min 0 W/m 19,3 km/h (3 Bft) 95,74 %
03.12.2018 21:10 11,6 C 10,6 C 10,0 C 93 % 999,2 hPa 0,0 l/m 0 min 2 min 0 W/m 22,5 km/h (4 Bft) 94,74 %
03.12.2018 21:12 11,6 C 10,6 C 10,0 C 93 % 999,3 hPa 0,0 l/m 0 min 2 min 0 W/m 22,5 km/h (4 Bft) 93,75 %
03.12.2018 21:14 11,7 C 10,6 C 10,0 C 93 % 999,3 hPa 0,0 l/m 0 min 2 min 0 W/m 16,1 km/h (3 Bft) 95,74 %
03.12.2018 21:16 11,7 C 10,6 C 10,0 C 93 % 999,3 hPa 0,0 l/m 0 min 2 min 0 W/m 12,9 km/h (3 Bft) 93,62 %
03.12.2018 21:18 11,7 C 10,6 C 10,0 C 93 % 999,3 hPa 0,0 l/m 0 min 0 min 0 W/m 22,5 km/h (4 Bft) 95,74 %
03.12.2018 21:20 11,7 C 10,6 C 10,0 C 93 % 999,3 hPa 0,0 l/m 0 min 2 min 0 W/m 19,3 km/h (3 Bft) 96,30 %
03.12.2018 21:22 11,7 C 10,6 C 10,0 C 93 % 999,4 hPa 0,0 l/m 0 min 0 min 0 W/m 9,7 km/h (2 Bft) 94,74 %
03.12.2018 21:24 11,7 C 10,6 C 10,0 C 93 % 999,5 hPa 0,0 l/m 0 min 0 min 0 W/m 16,1 km/h (3 Bft) 97,87 %
03.12.2018 21:26 11,7 C 10,6 C 10,0 C 93 % 999,5 hPa 0,0 l/m 0 min 0 min 0 W/m 16,1 km/h (3 Bft) 100,00 %
03.12.2018 21:28 11,7 C 10,6 C 10,0 C 93 % 999,6 hPa 0,0 l/m 0 min 0 min 0 W/m 19,3 km/h (3 Bft) 97,87 %
03.12.2018 21:30 11,7 C 10,6 C 10,0 C 93 % 999,5 hPa 0,0 l/m 0 min 2 min 0 W/m 9,7 km/h (2 Bft) 97,87 %
03.12.2018 21:32 11,7 C 10,6 C 10,0 C 93 % 999,6 hPa 0,0 l/m 0 min 2 min 0 W/m 16,1 km/h (3 Bft) 98,15 %
03.12.2018 21:34 11,7 C 10,6 C 10,0 C 93 % 999,6 hPa 0,0 l/m 0 min 0 min 0 W/m 9,7 km/h (2 Bft) 97,87 %
03.12.2018 21:36 11,7 C 10,6 C 10,0 C 93 % 999,6 hPa 0,0 l/m 0 min 2 min 0 W/m 9,7 km/h (2 Bft) 95,65 %
03.12.2018 21:38 11,7 C 10,0 C 10,0 C 93 % 999,6 hPa 0,0 l/m 0 min 2 min 0 W/m 22,5 km/h (4 Bft) 95,74 %
03.12.2018 21:40 11,7 C 10,0 C 10,0 C 93 % 999,6 hPa 0,0 l/m 0 min 2 min 0 W/m 16,1 km/h (3 Bft) 97,87 %
03.12.2018 21:42 11,7 C 10,6 C 10,0 C 93 % 999,6 hPa 0,0 l/m 0 min 2 min 0 W/m 19,3 km/h (3 Bft) 95,74 %
03.12.2018 21:44 11,7 C 10,6 C 10,0 C 93 % 999,7 hPa 0,0 l/m 0 min 0 min 0 W/m 19,3 km/h (3 Bft) 94,74 %
03.12.2018 21:46 11,7 C 10,6 C 10,0 C 93 % 999,7 hPa 0,0 l/m 0 min 0 min 0 W/m 19,3 km/h (3 Bft) 95,74 %
03.12.2018 21:48 11,7 C 10,0 C 10,0 C 93 % 999,7 hPa 0,0 l/m 0 min 2 min 0 W/m 12,9 km/h (3 Bft) 97,92 %
03.12.2018 21:50 11,7 C 10,0 C 10,0 C 93 % 999,7 hPa 0,0 l/m 0 min 2 min 0 W/m 16,1 km/h (3 Bft) 95,74 %
03.12.2018 21:52 11,7 C 10,0 C 10,0 C 93 % 999,8 hPa 0,0 l/m 0 min 2 min 0 W/m 22,5 km/h (4 Bft) 95,74 %
03.12.2018 21:54 11,7 C 10,0 C 10,0 C 93 % 999,9 hPa 0,0 l/m 0 min 2 min 0 W/m 12,9 km/h (3 Bft) 96,30 %
03.12.2018 21:56 11,6 C 10,0 C 9,4 C 93 % 1000,0 hPa 0,2 l/m 0 min 2 min 0 W/m 19,3 km/h (3 Bft) 97,87 %
03.12.2018 21:58 11,6 C 10,0 C 9,4 C 93 % 1000,0 hPa 0,2 l/m 0 min 2 min 0 W/m 6,4 km/h (2 Bft) 97,37 %
03.12.2018 22:00 11,6 C 10,0 C 9,4 C 93 % 1000,0 hPa 0,0 l/m 0 min 2 min 0 W/m 16,1 km/h (3 Bft) 97,92 %
03.12.2018 22:02 11,6 C 10,0 C 9,4 C 93 % 1000,1 hPa 0,0 l/m 0 min 2 min 0 W/m 6,4 km/h (2 Bft) 97,87 %
03.12.2018 22:04 11,6 C 10,0 C 9,4 C 93 % 999,9 hPa 0,0 l/m 0 min 2 min 0 W/m 16,1 km/h (3 Bft) 98,15 %
03.12.2018 22:06 11,6 C 10,0 C 9,4 C 94 % 999,9 hPa 0,0 l/m 0 min 2 min 0 W/m 12,9 km/h (3 Bft) 93,62 %
03.12.2018 22:08 11,5 C 10,0 C 9,4 C 94 % 1000,0 hPa 0,0 l/m 0 min 2 min 0 W/m 16,1 km/h (3 Bft) 100,00 %
03.12.2018 22:10 11,5 C 10,0 C 9,4 C 94 % 1000,1 hPa 0,0 l/m 0 min 2 min 0 W/m 16,1 km/h (3 Bft) 95,74 %
03.12.2018 22:12 11,5 C 10,0 C 9,4 C 94 % 1000,2 hPa 0,0 l/m 0 min 2 min 0 W/m 12,9 km/h (3 Bft) 97,83 %
03.12.2018 22:14 11,4 C 10,0 C 9,4 C 94 % 1000,2 hPa 0,2 l/m 0 min 2 min 0 W/m 29,0 km/h (5 Bft) 97,87 %
03.12.2018 22:16 11,4 C 10,0 C 9,4 C 94 % 1000,3 hPa 0,0 l/m 0 min 2 min 0 W/m 22,5 km/h (4 Bft) 97,87 %
03.12.2018 22:18 11,4 C 10,0 C 9,4 C 94 % 1000,3 hPa 0,0 l/m 0 min 2 min 0 W/m 22,5 km/h (4 Bft) 97,96 %
03.12.2018 22:20 11,4 C 10,0 C 9,4 C 94 % 1000,3 hPa 0,0 l/m 0 min 2 min 0 W/m 19,3 km/h (3 Bft) 95,65 %
03.12.2018 22:22 11,4 C 10,0 C 9,4 C 94 % 1000,4 hPa 0,0 l/m 0 min 0 min 0 W/m 12,9 km/h (3 Bft) 95,74 %
03.12.2018 22:24 11,4 C 10,0 C 9,4 C 94 % 1000,4 hPa 0,0 l/m 0 min 0 min 0 W/m 22,5 km/h (4 Bft) 100,00 %
03.12.2018 22:26 11,3 C 10,0 C 9,4 C 94 % 1000,4 hPa 0,0 l/m 0 min 0 min 0 W/m 22,5 km/h (4 Bft) 98,15 %
03.12.2018 22:28 11,3 C 10,0 C 9,4 C 94 % 1000,5 hPa 0,0 l/m 0 min 0 min 0 W/m 22,5 km/h (4 Bft) 100,00 %
03.12.2018 22:30 11,3 C 10,0 C 9,4 C 94 % 1000,5 hPa 0,0 l/m 0 min 0 min 0 W/m 25,7 km/h (4 Bft) 100,00 %
03.12.2018 22:32 11,3 C 10,0 C 9,4 C 94 % 1000,5 hPa 0,0 l/m 0 min 0 min 0 W/m 22,5 km/h (4 Bft) 100,00 %
03.12.2018 22:34 11,2 C 10,0 C 9,4 C 95 % 1000,5 hPa 0,0 l/m 0 min 0 min 0 W/m 9,7 km/h (2 Bft) 100,00 %
03.12.2018 22:36 11,2 C 10,0 C 9,4 C 95 % 1000,5 hPa 0,0 l/m 0 min 0 min 0 W/m 9,7 km/h (2 Bft) 97,87 %
03.12.2018 22:38 11,2 C 10,0 C 9,4 C 95 % 1000,6 hPa 0,0 l/m 0 min 0 min 0 W/m 16,1 km/h (3 Bft) 100,00 %
03.12.2018 22:40 11,2 C 10,0 C 9,4 C 95 % 1000,7 hPa 0,0 l/m 0 min 2 min 0 W/m 22,5 km/h (4 Bft) 100,00 %
03.12.2018 22:42 11,2 C 10,0 C 9,4 C 95 % 1000,8 hPa 0,0 l/m 0 min 2 min 0 W/m 16,1 km/h (3 Bft) 87,23 %
03.12.2018 22:44 11,2 C 10,0 C 9,4 C 95 % 1000,8 hPa 0,2 l/m 0 min 2 min 0 W/m 16,1 km/h (3 Bft) 100,00 %
03.12.2018 22:46 11,2 C 10,0 C 9,4 C 95 % 1001,0 hPa 0,0 l/m 0 min 2 min 0 W/m 22,5 km/h (4 Bft) 95,74 %
03.12.2018 22:48 11,1 C 10,0 C 9,4 C 95 % 1001,0 hPa 0,4 l/m 0 min 2 min 0 W/m 32,2 km/h (5 Bft) 97,87 %
03.12.2018 22:50 11,1 C 10,0 C 9,4 C 95 % 1001,0 hPa 0,0 l/m 0 min 2 min 0 W/m 22,5 km/h (4 Bft) 100,00 %
03.12.2018 22:52 11,1 C 10,0 C 9,4 C 95 % 1001,0 hPa 0,0 l/m 0 min 2 min 0 W/m 12,9 km/h (3 Bft) 100,00 %
03.12.2018 22:54 11,1 C 10,0 C 9,4 C 95 % 1001,2 hPa 0,0 l/m 0 min 0 min 0 W/m 16,1 km/h (3 Bft) 100,00 %
03.12.2018 22:56 11,1 C 10,0 C 9,4 C 95 % 1001,2 hPa 0,0 l/m 0 min 0 min 0 W/m 22,5 km/h (4 Bft) 100,00 %
03.12.2018 22:58 11,1 C 10,0 C 9,4 C 95 % 1001,2 hPa 0,0 l/m 0 min 0 min 0 W/m 16,1 km/h (3 Bft) 100,00 %
03.12.2018 23:00 11,1 C 10,0 C 9,4 C 95 % 1001,2 hPa 0,0 l/m 0 min 0 min 0 W/m 12,9 km/h (3 Bft) 97,83 %
03.12.2018 23:02 11,1 C 10,0 C 9,4 C 95 % 1001,1 hPa 0,0 l/m 0 min 0 min 0 W/m 16,1 km/h (3 Bft) 95,74 %
03.12.2018 23:04 11,0 C 10,0 C 9,4 C 96 % 1001,1 hPa 0,0 l/m 0 min 0 min 0 W/m 19,3 km/h (3 Bft) 98,00 %
03.12.2018 23:06 11,0 C 10,0 C 9,4 C 96 % 1001,2 hPa 0,0 l/m 0 min 0 min 0 W/m 22,5 km/h (4 Bft) 100,00 %
03.12.2018 23:08 11,0 C 10,0 C 9,4 C 96 % 1001,2 hPa 0,0 l/m 0 min 0 min 0 W/m 19,3 km/h (3 Bft) 100,00 %
03.12.2018 23:10 11,0 C 10,0 C 9,4 C 96 % 1001,3 hPa 0,0 l/m 0 min 0 min 0 W/m 22,5 km/h (4 Bft) 100,00 %
03.12.2018 23:12 11,0 C 10,0 C 9,4 C 96 % 1001,3 hPa 0,0 l/m 0 min 0 min 0 W/m 9,7 km/h (2 Bft) 97,14 %
03.12.2018 23:14 10,9 C 10,0 C 9,4 C 96 % 1001,4 hPa 0,0 l/m 0 min 0 min 0 W/m 12,9 km/h (3 Bft) 98,11 %
03.12.2018 23:16 10,9 C 10,0 C 9,4 C 96 % 1001,6 hPa 0,0 l/m 0 min 0 min 0 W/m 12,9 km/h (3 Bft) 100,00 %
03.12.2018 23:18 10,9 C 10,0 C 9,4 C 96 % 1001,6 hPa 0,0 l/m 0 min 0 min 0 W/m 19,3 km/h (3 Bft) 97,87 %
03.12.2018 23:20 10,9 C 10,0 C 9,4 C 96 % 1001,6 hPa 0,0 l/m 0 min 0 min 0 W/m 16,1 km/h (3 Bft) 100,00 %
03.12.2018 23:22 10,9 C 10,0 C 9,4 C 96 % 1001,7 hPa 0,0 l/m 0 min 0 min 0 W/m 19,3 km/h (3 Bft) 97,87 %
03.12.2018 23:24 10,9 C 10,0 C 9,4 C 96 % 1001,7 hPa 0,0 l/m 0 min 0 min 0 W/m 19,3 km/h (3 Bft) 97,87 %
03.12.2018 23:26 10,9 C 9,4 C 9,4 C 96 % 1001,8 hPa 0,0 l/m 0 min 0 min 0 W/m 29,0 km/h (5 Bft) 95,74 %
03.12.2018 23:28 10,8 C 9,4 C 9,4 C 96 % 1001,8 hPa 0,0 l/m 0 min 0 min 0 W/m 16,1 km/h (3 Bft) 95,65 %
03.12.2018 23:30 10,8 C 9,4 C 9,4 C 96 % 1001,7 hPa 0,0 l/m 0 min 0 min 0 W/m 9,7 km/h (2 Bft) 97,62 %
03.12.2018 23:32 10,8 C 9,4 C 9,4 C 96 % 1001,9 hPa 0,0 l/m 0 min 0 min 0 W/m 16,1 km/h (3 Bft) 95,74 %
03.12.2018 23:34 10,8 C 9,4 C 9,4 C 96 % 1001,9 hPa 0,0 l/m 0 min 0 min 0 W/m 19,3 km/h (3 Bft) 95,92 %
03.12.2018 23:36 10,8 C 9,4 C 9,4 C 96 % 1002,0 hPa 0,0 l/m 0 min 0 min 0 W/m 9,7 km/h (2 Bft) 98,00 %
03.12.2018 23:38 10,8 C 9,4 C 9,4 C 96 % 1002,1 hPa 0,0 l/m 0 min 0 min 0 W/m 16,1 km/h (3 Bft) 97,87 %
03.12.2018 23:40 10,8 C 9,4 C 9,4 C 96 % 1002,1 hPa 0,0 l/m 0 min 2 min 0 W/m 22,5 km/h (4 Bft) 97,83 %
03.12.2018 23:42 10,8 C 9,4 C 9,4 C 96 % 1002,2 hPa 0,0 l/m 0 min 2 min 0 W/m 16,1 km/h (3 Bft) 95,74 %
03.12.2018 23:44 10,8 C 9,4 C 9,4 C 96 % 1002,2 hPa 0,2 l/m 0 min 2 min 0 W/m 19,3 km/h (3 Bft) 97,87 %
03.12.2018 23:46 10,7 C 9,4 C 8,9 C 96 % 1002,3 hPa 0,0 l/m 0 min 2 min 0 W/m 6,4 km/h (2 Bft) 95,12 %
03.12.2018 23:48 10,7 C 9,4 C 8,9 C 96 % 1002,4 hPa 0,2 l/m 0 min 2 min 0 W/m 16,1 km/h (3 Bft) 98,00 %
03.12.2018 23:50 10,7 C 9,4 C 8,9 C 96 % 1002,6 hPa 0,0 l/m 0 min 2 min 0 W/m 25,7 km/h (4 Bft) 97,87 %
03.12.2018 23:52 10,7 C 9,4 C 8,9 C 96 % 1002,5 hPa 0,0 l/m 0 min 2 min 0 W/m 12,9 km/h (3 Bft) 97,87 %
03.12.2018 23:54 10,7 C 9,4 C 8,9 C 96 % 1002,6 hPa 0,0 l/m 0 min 2 min 0 W/m 22,5 km/h (4 Bft) 97,96 %
03.12.2018 23:56 10,7 C 9,4 C 8,9 C 96 % 1002,7 hPa 0,0 l/m 0 min 0 min 0 W/m 19,3 km/h (3 Bft) 95,74 %
03.12.2018 23:58 10,7 C 9,4 C 8,9 C 96 % 1002,8 hPa 0,0 l/m 0 min 0 min 0 W/m 16,1 km/h (3 Bft) 97,87 %
_ Min-Zeit 23:46 23:26 23:46 13:54 16:00 - - - - 00:02 00:02
Minimum _ 10,7 C 9,4 C 8,9 C 86 % 997,2 hPa - - - - 3,2 km/h (1 Bft) 9,09 %
_ Max-Zeit 13:48 12:18 12:08 00:26 23:58 00:50 12:08 06:08 12:18 13:36 00:07
Maximum _ 14,2 C 17,2 C 12,8 C 98 % 1002,8 hPa 0,4 l/m 4 min 4 min 377 W/m 32,2 km/h
SW (5 Bft)
100,00 %
Durchschnitt _ 12,4 C 11,6 C 10,8 C 94 % 998,7 hPa #7,0 l/m #1:30 h #6:38 h 82 W/m 15,0 km/h (3 Bft) 97,35 %
© 2018 W. Hausmann